LA METEO D'AUBAIS- ALT.67 m
Donnes mto: Actuelle mercredi, 08/12/2021 10:50
Date Horaire Temp. E. Hum. E. P.atmo. Pluie Vent Direction Direction Ensoleilleme Horaire Temp Ev.Tr. UV Ray;solaire P. de rose Temp au vent Rafales Rception
08/12/2021 10:50 7,1 C 95 % 1004,0 hPa 0,0 mm 0,3 km/h O-SO 252 0 min 0 min 0,000 mm 0,0 UV-I 123 W/m 6,4 C 7,1 C 1,8 km/h 100,00 %
08/12/2021 10:49 7,1 C 95 % 1004,0 hPa 0,0 mm 0,0 km/h O-SO 252 0 min 0 min 0,000 mm 0,0 UV-I 117 W/m 6,4 C 7,1 C 0,0 km/h 95,83 %
08/12/2021 10:48 7,1 C 95 % 1003,9 hPa 0,0 mm 0,1 km/h O-SO 252 0 min 0 min 0,000 mm 0,0 UV-I 111 W/m 6,4 C 7,1 C 1,8 km/h 96,00 %
08/12/2021 10:47 7,1 C 95 % 1004,0 hPa 0,0 mm 0,1 km/h O-SO 252 0 min 0 min 0,000 mm 0,0 UV-I 104 W/m 6,4 C 7,1 C 1,8 km/h 96,00 %
08/12/2021 10:46 7,1 C 95 % 1003,9 hPa 0,0 mm 0,0 km/h O-SO 252 0 min 0 min 0,000 mm 0,0 UV-I 100 W/m 6,4 C 7,1 C 0,0 km/h 100,00 %
08/12/2021 10:45 7,1 C 95 % 1003,9 hPa 0,0 mm 0,2 km/h O-SO 252 0 min 0 min 0,000 mm 0,0 UV-I 95 W/m 6,4 C 7,1 C 1,8 km/h 100,00 %
08/12/2021 10:44 7,1 C 95 % 1004,0 hPa 0,0 mm 0,2 km/h O-SO 252 0 min 0 min 0,000 mm 0,0 UV-I 91 W/m 6,4 C 7,1 C 1,8 km/h 100,00 %
08/12/2021 10:43 7,1 C 95 % 1003,9 hPa 0,0 mm 0,0 km/h O-SO 252 0 min 0 min 0,000 mm 0,0 UV-I 87 W/m 6,4 C 7,1 C 0,0 km/h 100,00 %
08/12/2021 10:42 7,1 C 95 % 1003,9 hPa 0,0 mm 0,1 km/h O-SO 252 0 min 0 min 0,000 mm 0,0 UV-I 84 W/m 6,4 C 7,1 C 1,8 km/h 96,43 %
08/12/2021 10:41 7,1 C 95 % 1003,9 hPa 0,0 mm 1,2 km/h O-SO 252 0 min 0 min 0,000 mm 0,0 UV-I 80 W/m 6,4 C 7,1 C 3,5 km/h 100,00 %
08/12/2021 10:40 7,0 C 95 % 1003,9 hPa 0,0 mm 0,2 km/h O-SO 252 0 min 0 min 0,000 mm 0,0 UV-I 78 W/m 6,3 C 7,0 C 1,8 km/h 100,00 %
08/12/2021 10:39 7,0 C 95 % 1003,8 hPa 0,0 mm 0,0 km/h O-SO 252 0 min 0 min 0,000 mm 0,0 UV-I 76 W/m 6,3 C 7,0 C 0,0 km/h 100,00 %
08/12/2021 10:38 7,0 C 95 % 1003,9 hPa 0,0 mm 0,0 km/h O-SO 252 0 min 0 min 0,000 mm 0,0 UV-I 75 W/m 6,3 C 7,0 C 0,0 km/h 100,00 %
08/12/2021 10:37 7,0 C 95 % 1003,8 hPa 0,0 mm 0,0 km/h O-SO 252 0 min 0 min 0,000 mm 0,0 UV-I 72 W/m 6,3 C 7,0 C 0,0 km/h 100,00 %
08/12/2021 10:36 7,0 C 95 % 1003,8 hPa 0,0 mm 0,0 km/h O-SO 252 0 min 0 min 0,000 mm 0,0 UV-I 70 W/m 6,3 C 7,0 C 0,0 km/h 100,00 %
08/12/2021 10:35 7,0 C 95 % 1003,9 hPa 0,0 mm 0,7 km/h O-SO 252 0 min 0 min 0,000 mm 0,0 UV-I 70 W/m 6,3 C 7,0 C 1,8 km/h 96,67 %
08/12/2021 10:34 7,0 C 95 % 1003,9 hPa 0,0 mm 0,1 km/h O-SO 252 0 min 0 min 0,000 mm 0,0 UV-I 70 W/m 6,3 C 7,0 C 1,8 km/h 95,83 %
08/12/2021 10:33 7,0 C 95 % 1003,9 hPa 0,0 mm 0,0 km/h O-SO 252 0 min 0 min 0,000 mm 0,0 UV-I 70 W/m 6,3 C 7,0 C 0,0 km/h 100,00 %
08/12/2021 10:32 7,0 C 95 % 1003,8 hPa 0,0 mm 0,1 km/h O-SO 252 0 min 0 min 0,000 mm 0,0 UV-I 70 W/m 6,3 C 7,0 C 1,8 km/h 92,86 %
08/12/2021 10:31 7,0 C 96 % 1003,9 hPa 0,0 mm 1,0 km/h O-SO 252 0 min 0 min 0,000 mm 0,0 UV-I 72 W/m 6,4 C 7,0 C 3,5 km/h 100,00 %
08/12/2021 10:30 7,0 C 96 % 1003,8 hPa 0,0 mm 0,2 km/h O-SO 252 0 min 0 min 0,000 mm 0,0 UV-I 72 W/m 6,4 C 7,0 C 1,8 km/h 100,00 %
08/12/2021 10:29 6,9 C 96 % 1003,8 hPa 0,0 mm 1,4 km/h O-SO 252 0 min 0 min 0,000 mm 0,0 UV-I 72 W/m 6,3 C 6,9 C 1,8 km/h 96,00 %
08/12/2021 10:28 6,9 C 96 % 1003,8 hPa 0,0 mm 2,6 km/h O-SO 252 0 min 0 min 0,000 mm 0,0 UV-I 72 W/m 6,3 C 6,9 C 3,5 km/h 95,83 %
08/12/2021 10:27 6,9 C 96 % 1003,8 hPa 0,0 mm 0,9 km/h O-SO 252 0 min 0 min 0,000 mm 0,0 UV-I 72 W/m 6,3 C 6,9 C 3,5 km/h 100,00 %
08/12/2021 10:26 6,9 C 96 % 1003,8 hPa 0,0 mm 0,0 km/h O-SO 252 0 min 0 min 0,000 mm 0,0 UV-I 71 W/m 6,3 C 6,9 C 0,0 km/h 100,00 %
08/12/2021 10:25 6,9 C 95 % 1003,9 hPa 0,0 mm 0,2 km/h O-SO 252 0 min 0 min 0,000 mm 0,0 UV-I 70 W/m 6,2 C 6,9 C 1,8 km/h 95,83 %
08/12/2021 10:24 6,9 C 96 % 1003,8 hPa 0,0 mm 0,0 km/h O-SO 252 0 min 0 min 0,000 mm 0,0 UV-I 69 W/m 6,3 C 6,9 C 0,0 km/h 96,15 %
08/12/2021 10:23 6,9 C 96 % 1003,9 hPa 0,0 mm 0,5 km/h O-SO 252 0 min 0 min 0,000 mm 0,0 UV-I 66 W/m 6,3 C 6,9 C 1,8 km/h 100,00 %
08/12/2021 10:22 6,9 C 95 % 1003,8 hPa 0,0 mm 1,2 km/h O-SO 252 0 min 0 min 0,000 mm 0,0 UV-I 65 W/m 6,2 C 6,9 C 3,5 km/h 100,00 %
08/12/2021 10:21 6,9 C 95 % 1003,8 hPa 0,0 mm 0,1 km/h O-SO 252 0 min 0 min 0,000 mm 0,0 UV-I 64 W/m 6,2 C 6,9 C 1,8 km/h 100,00 %
08/12/2021 10:20 6,9 C 95 % 1003,8 hPa 0,0 mm 0,6 km/h O-SO 252 0 min 0 min 0,000 mm 0,0 UV-I 62 W/m 6,2 C 6,9 C 1,8 km/h 96,43 %
08/12/2021 10:19 6,9 C 95 % 1003,8 hPa 0,0 mm 1,3 km/h O-SO 252 0 min 0 min 0,000 mm 0,0 UV-I 60 W/m 6,2 C 6,9 C 1,8 km/h 96,00 %
08/12/2021 10:18 6,9 C 95 % 1003,9 hPa 0,0 mm 2,0 km/h O-SO 252 0 min 0 min 0,000 mm 0,0 UV-I 60 W/m 6,2 C 6,9 C 5,3 km/h 92,31 %
08/12/2021 10:17 6,9 C 95 % 1003,9 hPa 0,0 mm 1,5 km/h O-SO 252 0 min 0 min 0,000 mm 0,0 UV-I 58 W/m 6,2 C 6,9 C 5,3 km/h 86,67 %
08/12/2021 10:16 6,9 C 95 % 1003,9 hPa 0,0 mm 0,0 km/h O-SO 252 0 min 0 min 0,000 mm 0,0 UV-I 57 W/m 6,2 C 6,9 C 0,0 km/h 100,00 %
08/12/2021 10:15 6,9 C 95 % 1003,9 hPa 0,0 mm 0,4 km/h O-SO 252 0 min 0 min 0,000 mm 0,0 UV-I 55 W/m 6,2 C 6,9 C 1,8 km/h 97,62 %
08/12/2021 10:14 6,9 C 95 % 1003,9 hPa 0,0 mm 2,0 km/h O-SO 252 0 min 0 min 0,000 mm 0,0 UV-I 54 W/m 6,2 C 6,9 C 5,3 km/h 97,76 %
08/12/2021 10:13 6,8 C 95 % 1003,8 hPa 0,0 mm 1,1 km/h O-SO 252 0 min 0 min 0,000 mm 0,0 UV-I 53 W/m 6,1 C 6,8 C 3,5 km/h 95,83 %
08/12/2021 10:12 6,8 C 95 % 1003,9 hPa 0,0 mm 0,5 km/h O-SO 252 0 min 0 min 0,000 mm 0,0 UV-I 51 W/m 6,1 C 6,8 C 3,5 km/h 96,43 %
08/12/2021 10:11 6,8 C 95 % 1003,9 hPa 0,0 mm 1,0 km/h O-SO 252 0 min 0 min 0,000 mm 0,0 UV-I 51 W/m 6,1 C 6,8 C 3,5 km/h 95,65 %
08/12/2021 10:10 6,8 C 95 % 1003,9 hPa 0,0 mm 1,5 km/h O-SO 252 0 min 0 min 0,000 mm 0,0 UV-I 50 W/m 6,1 C 6,8 C 3,5 km/h 96,43 %
08/12/2021 10:09 6,8 C 96 % 1003,8 hPa 0,0 mm 0,5 km/h O-SO 252 0 min 0 min 0,000 mm 0,0 UV-I 49 W/m 6,2 C 6,8 C 1,8 km/h 100,00 %
08/12/2021 10:08 6,8 C 96 % 1003,9 hPa 0,0 mm 0,9 km/h O-SO 252 0 min 0 min 0,000 mm 0,0 UV-I 49 W/m 6,2 C 6,8 C 3,5 km/h 100,00 %
08/12/2021 10:07 6,8 C 96 % 1003,9 hPa 0,0 mm 0,1 km/h O-SO 252 0 min 0 min 0,000 mm 0,0 UV-I 49 W/m 6,2 C 6,8 C 1,8 km/h 97,76 %
08/12/2021 10:06 6,8 C 96 % 1003,9 hPa 0,0 mm 1,8 km/h O-SO 252 0 min 0 min 0,000 mm 0,0 UV-I 49 W/m 6,2 C 6,8 C 3,5 km/h 100,00 %
08/12/2021 10:05 6,8 C 96 % 1003,9 hPa 0,0 mm 0,1 km/h O-SO 252 0 min 0 min 0,000 mm 0,0 UV-I 47 W/m 6,2 C 6,8 C 1,8 km/h 100,00 %
08/12/2021 10:04 6,8 C 96 % 1003,9 hPa 0,0 mm 2,8 km/h O-SO 252 0 min 0 min 0,000 mm 0,0 UV-I 47 W/m 6,2 C 6,8 C 5,3 km/h 91,67 %
08/12/2021 10:03 6,8 C 96 % 1003,9 hPa 0,0 mm 1,4 km/h O-SO 252 0 min 0 min 0,000 mm 0,0 UV-I 46 W/m 6,2 C 6,8 C 5,3 km/h 100,00 %
08/12/2021 10:02 6,8 C 96 % 1003,8 hPa 0,0 mm 0,2 km/h O-SO 252 0 min 0 min 0,000 mm 0,0 UV-I 46 W/m 6,2 C 6,8 C 1,8 km/h 96,43 %
08/12/2021 10:01 6,8 C 95 % 1003,8 hPa 0,0 mm 0,7 km/h O-SO 252 0 min 0 min 0,025 mm 0,0 UV-I 46 W/m 6,1 C 6,8 C 1,8 km/h 100,00 %
08/12/2021 10:00 6,8 C 95 % 1003,9 hPa 0,0 mm 0,3 km/h O-SO 252 0 min 0 min 0,000 mm 0,0 UV-I 46 W/m 6,1 C 6,8 C 1,8 km/h 97,75 %
08/12/2021 09:59 6,8 C 95 % 1003,9 hPa 0,0 mm 2,0 km/h O-SO 252 0 min 0 min 0,000 mm 0,0 UV-I 46 W/m 6,1 C 6,8 C 3,5 km/h 96,15 %
08/12/2021 09:58 6,8 C 95 % 1003,9 hPa 0,0 mm 1,1 km/h O-SO 252 0 min 0 min 0,000 mm 0,0 UV-I 47 W/m 6,1 C 6,8 C 3,5 km/h 95,83 %
08/12/2021 09:57 6,8 C 95 % 1003,9 hPa 0,0 mm 0,3 km/h O-SO 252 0 min 0 min 0,000 mm 0,0 UV-I 47 W/m 6,1 C 6,8 C 1,8 km/h 100,00 %
08/12/2021 09:56 6,8 C 95 % 1003,9 hPa 0,0 mm 2,2 km/h O-SO 252 0 min 0 min 0,000 mm 0,0 UV-I 49 W/m 6,1 C 6,8 C 5,3 km/h 100,00 %
08/12/2021 09:55 6,8 C 95 % 1003,9 hPa 0,0 mm 0,1 km/h O-SO 252 0 min 0 min 0,000 mm 0,0 UV-I 49 W/m 6,1 C 6,8 C 1,8 km/h 100,00 %
08/12/2021 09:54 6,7 C 95 % 1003,9 hPa 0,0 mm 0,6 km/h O-SO 252 0 min 0 min 0,000 mm 0,0 UV-I 51 W/m 6,0 C 6,7 C 3,5 km/h 100,00 %
08/12/2021 09:53 6,7 C 95 % 1003,9 hPa 0,0 mm 0,0 km/h O-SO 252 0 min 0 min 0,000 mm 0,0 UV-I 52 W/m 6,0 C 6,7 C 0,0 km/h 100,00 %
08/12/2021 09:52 6,7 C 95 % 1003,9 hPa 0,0 mm 0,0 km/h O-SO 252 0 min 0 min 0,000 mm 0,0 UV-I 53 W/m 6,0 C 6,7 C 0,0 km/h 100,00 %
08/12/2021 09:51 6,7 C 95 % 1004,0 hPa 0,0 mm 0,4 km/h O-SO 252 0 min 0 min 0,000 mm 0,0 UV-I 54 W/m 6,0 C 6,7 C 1,8 km/h 100,00 %
08/12/2021 09:50 6,7 C 95 % 1003,9 hPa 0,0 mm 0,0 km/h O-SO 252 0 min 0 min 0,000 mm 0,0 UV-I 54 W/m 6,0 C 6,7 C 0,0 km/h 100,00 %
08/12/2021 09:49 6,7 C 95 % 1004,0 hPa 0,0 mm 0,0 km/h O-SO 252 0 min 0 min 0,000 mm 0,0 UV-I 56 W/m 6,0 C 6,7 C 0,0 km/h 96,30 %
08/12/2021 09:48 6,7 C 95 % 1004,0 hPa 0,0 mm 0,0 km/h O-SO 252 0 min 0 min 0,000 mm 0,0 UV-I 59 W/m 6,0 C 6,7 C 0,0 km/h 96,00 %
08/12/2021 09:47 6,7 C 95 % 1004,0 hPa 0,0 mm 0,0 km/h O-SO 252 0 min 0 min 0,000 mm 0,0 UV-I 60 W/m 6,0 C 6,7 C 0,0 km/h 100,00 %
08/12/2021 09:46 6,7 C 96 % 1004,1 hPa 0,0 mm 0,0 km/h O-SO 252 0 min 0 min 0,000 mm 0,0 UV-I 61 W/m 6,1 C 6,7 C 0,0 km/h 96,15 %
08/12/2021 09:45 6,6 C 96 % 1004,1 hPa 0,0 mm 0,0 km/h O-SO 252 0 min 0 min 0,000 mm 0,0 UV-I 64 W/m 6,0 C 6,6 C 0,0 km/h 95,83 %
08/12/2021 09:44 6,6 C 96 % 1004,1 hPa 0,0 mm 0,0 km/h O-SO 252 0 min 0 min 0,000 mm 0,0 UV-I 65 W/m 6,0 C 6,6 C 0,0 km/h 95,65 %
08/12/2021 09:43 6,6 C 96 % 1004,2 hPa 0,0 mm 0,0 km/h O-SO 252 0 min 0 min 0,000 mm 0,0 UV-I 67 W/m 6,0 C 6,6 C 0,0 km/h 91,67 %
08/12/2021 09:42 6,6 C 96 % 1004,2 hPa 0,0 mm 0,0 km/h O-SO 252 0 min 0 min 0,000 mm 0,0 UV-I 71 W/m 6,0 C 6,6 C 0,0 km/h 100,00 %
08/12/2021 09:41 6,6 C 96 % 1004,2 hPa 0,0 mm 0,0 km/h O-SO 252 0 min 0 min 0,000 mm 0,0 UV-I 74 W/m 6,0 C 6,6 C 0,0 km/h 93,10 %
08/12/2021 09:40 6,5 C 96 % 1004,1 hPa 0,0 mm 0,1 km/h O-SO 252 0 min 0 min 0,000 mm 0,0 UV-I 81 W/m 5,9 C 6,5 C 1,8 km/h 100,00 %
08/12/2021 09:39 6,5 C 96 % 1004,1 hPa 0,0 mm 0,2 km/h O-SO 252 0 min 0 min 0,000 mm 0,0 UV-I 89 W/m 5,9 C 6,5 C 1,8 km/h 92,59 %
08/12/2021 09:38 6,5 C 96 % 1004,1 hPa 0,0 mm 2,1 km/h O-SO 252 0 min 0 min 0,000 mm 0,0 UV-I 88 W/m 5,9 C 6,5 C 3,5 km/h 96,30 %
08/12/2021 09:37 6,5 C 96 % 1004,1 hPa 0,0 mm 0,1 km/h O-SO 252 0 min 0 min 0,000 mm 0,0 UV-I 86 W/m 5,9 C 6,5 C 1,8 km/h 85,71 %
08/12/2021 09:36 6,4 C 96 % 1004,1 hPa 0,0 mm 0,0 km/h O-SO 252 0 min 0 min 0,000 mm 0,0 UV-I 85 W/m 5,8 C 6,4 C 0,0 km/h 100,00 %
08/12/2021 09:35 6,4 C 96 % 1004,0 hPa 0,0 mm 0,0 km/h O-SO 252 0 min 0 min 0,000 mm 0,0 UV-I 84 W/m 5,8 C 6,4 C 0,0 km/h 96,97 %
08/12/2021 09:34 6,4 C 95 % 1004,0 hPa 0,0 mm 2,4 km/h O-SO 252 0 min 0 min 0,000 mm 0,0 UV-I 82 W/m 5,7 C 6,4 C 5,3 km/h 100,00 %
08/12/2021 09:33 6,4 C 95 % 1004,1 hPa 0,0 mm 1,9 km/h O-SO 252 0 min 0 min 0,000 mm 0,0 UV-I 81 W/m 5,7 C 6,4 C 7,1 km/h 96,15 %
08/12/2021 09:32 6,4 C 95 % 1004,0 hPa 0,0 mm 0,0 km/h O-SO 252 0 min 0 min 0,000 mm 0,0 UV-I 81 W/m 5,7 C 6,4 C 0,0 km/h 100,00 %
08/12/2021 09:31 6,4 C 95 % 1004,1 hPa 0,0 mm 0,0 km/h O-SO 252 0 min 0 min 0,000 mm 0,0 UV-I 79 W/m 5,7 C 6,4 C 0,0 km/h 100,00 %
08/12/2021 09:30 6,4 C 95 % 1004,1 hPa 0,0 mm 0,0 km/h O-SO 252 0 min 0 min 0,000 mm 0,0 UV-I 79 W/m 5,7 C 6,4 C 0,0 km/h 92,86 %
08/12/2021 09:29 6,3 C 95 % 1004,1 hPa 0,0 mm 0,0 km/h O-SO 252 0 min 0 min 0,000 mm 0,0 UV-I 79 W/m 5,6 C 6,3 C 0,0 km/h 100,00 %
08/12/2021 09:28 6,3 C 95 % 1004,1 hPa 0,0 mm 0,0 km/h O-SO 252 0 min 0 min 0,000 mm 0,0 UV-I 78 W/m 5,6 C 6,3 C 0,0 km/h 95,65 %
08/12/2021 09:27 6,3 C 95 % 1004,1 hPa 0,0 mm 0,0 km/h O-SO 252 0 min 0 min 0,000 mm 0,0 UV-I 77 W/m 5,6 C 6,3 C 0,0 km/h 96,00 %
08/12/2021 09:26 6,3 C 95 % 1004,2 hPa 0,0 mm 0,0 km/h O-SO 252 0 min 0 min 0,000 mm 0,0 UV-I 77 W/m 5,6 C 6,3 C 0,0 km/h 95,83 %
08/12/2021 09:25 6,3 C 95 % 1004,1 hPa 0,0 mm 0,0 km/h O-SO 252 0 min 0 min 0,000 mm 0,0 UV-I 77 W/m 5,6 C 6,3 C 0,0 km/h 96,00 %
08/12/2021 09:24 6,3 C 95 % 1004,1 hPa 0,0 mm 0,0 km/h O-SO 252 0 min 0 min 0,000 mm 0,0 UV-I 77 W/m 5,6 C 6,3 C 0,0 km/h 100,00 %
08/12/2021 09:23 6,3 C 95 % 1004,1 hPa 0,0 mm 0,0 km/h O-SO 252 0 min 0 min 0,000 mm 0,0 UV-I 77 W/m 5,6 C 6,3 C 0,0 km/h 95,65 %
08/12/2021 09:22 6,3 C 95 % 1004,1 hPa 0,0 mm 0,0 km/h O-SO 252 0 min 0 min 0,000 mm 0,0 UV-I 76 W/m 5,6 C 6,3 C 0,0 km/h 100,00 %
08/12/2021 09:21 6,3 C 95 % 1004,1 hPa 0,0 mm 0,0 km/h O-SO 252 0 min 0 min 0,000 mm 0,0 UV-I 74 W/m 5,6 C 6,3 C 0,0 km/h 95,83 %
08/12/2021 09:20 6,3 C 95 % 1004,1 hPa 0,0 mm 0,0 km/h O-SO 252 0 min 0 min 0,000 mm 0,0 UV-I 72 W/m 5,6 C 6,3 C 0,0 km/h 95,83 %
08/12/2021 09:19 6,2 C 95 % 1004,1 hPa 0,0 mm 0,0 km/h O-SO 252 0 min 0 min 0,000 mm 0,0 UV-I 68 W/m 5,5 C 6,2 C 0,0 km/h 96,00 %
08/12/2021 09:18 6,2 C 95 % 1004,1 hPa 0,0 mm 0,0 km/h O-SO 252 0 min 0 min 0,000 mm 0,0 UV-I 64 W/m 5,5 C 6,2 C 0,0 km/h 100,00 %
08/12/2021 09:17 6,2 C 95 % 1004,1 hPa 0,0 mm 0,0 km/h O-SO 252 0 min 0 min 0,000 mm 0,0 UV-I 60 W/m 5,5 C 6,2 C 0,0 km/h 96,55 %
08/12/2021 09:16 6,2 C 95 % 1004,1 hPa 0,0 mm 0,0 km/h O-SO 252 0 min 0 min 0,000 mm 0,0 UV-I 56 W/m 5,5 C 6,2 C 0,0 km/h 94,12 %
08/12/2021 09:15 6,2 C 95 % 1004,1 hPa 0,0 mm 0,0 km/h O-SO 252 0 min 0 min 0,000 mm 0,0 UV-I 52 W/m 5,5 C 6,2 C 0,0 km/h 96,30 %
08/12/2021 09:14 6,2 C 95 % 1004,1 hPa 0,0 mm 0,0 km/h O-SO 252 0 min 0 min 0,000 mm 0,0 UV-I 47 W/m 5,5 C 6,2 C 0,0 km/h 96,00 %
08/12/2021 09:13 6,2 C 95 % 1004,1 hPa 0,0 mm 0,0 km/h O-SO 252 0 min 0 min 0,000 mm 0,0 UV-I 46 W/m 5,5 C 6,2 C 0,0 km/h 96,30 %
08/12/2021 09:12 6,2 C 95 % 1004,1 hPa 0,0 mm 0,0 km/h O-SO 252 0 min 0 min 0,000 mm 0,0 UV-I 43 W/m 5,5 C 6,2 C 0,0 km/h 96,00 %
08/12/2021 09:11 6,2 C 95 % 1004,1 hPa 0,0 mm 0,0 km/h O-SO 252 0 min 0 min 0,000 mm 0,0 UV-I 41 W/m 5,5 C 6,2 C 0,0 km/h 92,86 %
08/12/2021 09:10 6,2 C 95 % 1004,2 hPa 0,0 mm 0,0 km/h O-SO 252 0 min 0 min 0,000 mm 0,0 UV-I 39 W/m 5,5 C 6,2 C 0,0 km/h 100,00 %
08/12/2021 09:09 6,2 C 95 % 1004,2 hPa 0,0 mm 0,0 km/h O-SO 252 0 min 0 min 0,000 mm 0,0 UV-I 37 W/m 5,5 C 6,2 C 0,0 km/h 95,83 %
08/12/2021 09:08 6,2 C 95 % 1004,1 hPa 0,0 mm 0,0 km/h O-SO 252 0 min 0 min 0,000 mm 0,0 UV-I 35 W/m 5,5 C 6,2 C 0,0 km/h 100,00 %
08/12/2021 09:07 6,2 C 95 % 1004,1 hPa 0,0 mm 1,0 km/h O-SO 252 0 min 0 min 0,000 mm 0,0 UV-I 33 W/m 5,5 C 6,2 C 3,5 km/h 95,12 %
08/12/2021 09:06 6,2 C 95 % 1004,1 hPa 0,0 mm 0,0 km/h O-SO 252 0 min 0 min 0,000 mm 0,0 UV-I 31 W/m 5,5 C 6,2 C 0,0 km/h 97,82 %
08/12/2021 09:05 6,2 C 95 % 1004,1 hPa 0,0 mm 0,1 km/h O-SO 252 0 min 0 min 0,000 mm 0,0 UV-I 29 W/m 5,5 C 6,2 C 1,8 km/h 96,43 %
08/12/2021 09:04 6,2 C 95 % 1004,1 hPa 0,0 mm 0,0 km/h O-SO 252 0 min 0 min 0,000 mm 0,0 UV-I 27 W/m 5,5 C 6,2 C 0,0 km/h 96,00 %
08/12/2021 09:03 6,2 C 95 % 1004,1 hPa 0,0 mm 0,0 km/h O-SO 252 0 min 0 min 0,000 mm 0,0 UV-I 25 W/m 5,5 C 6,2 C 0,0 km/h 96,00 %
08/12/2021 09:02 6,2 C 95 % 1004,1 hPa 0,0 mm 0,0 km/h O-SO 252 0 min 0 min 0,000 mm 0,0 UV-I 25 W/m 5,5 C 6,2 C 0,0 km/h 91,30 %
08/12/2021 09:01 6,2 C 95 % 1004,2 hPa 0,0 mm 0,0 km/h O-SO 252 0 min 0 min 0,000 mm 0,0 UV-I 23 W/m 5,5 C 6,2 C 0,0 km/h 100,00 %
08/12/2021 09:00 6,2 C 95 % 1004,1 hPa 0,0 mm 0,9 km/h O-SO 252 0 min 0 min 0,000 mm 0,0 UV-I 23 W/m 5,5 C 6,2 C 3,5 km/h 96,00 %
08/12/2021 08:59 6,2 C 95 % 1004,2 hPa 0,0 mm 0,3 km/h O-SO 252 0 min 0 min 0,000 mm 0,0 UV-I 23 W/m 5,5 C 6,2 C 1,8 km/h 92,86 %
08/12/2021 08:58 6,2 C 95 % 1004,1 hPa 0,0 mm 2,2 km/h O-SO 252 0 min 0 min 0,000 mm 0,0 UV-I 23 W/m 5,5 C 6,2 C 5,3 km/h 100,00 %
08/12/2021 08:57 6,2 C 95 % 1004,1 hPa 0,0 mm 0,0 km/h O-SO 252 0 min 0 min 0,000 mm 0,0 UV-I 23 W/m 5,5 C 6,2 C 0,0 km/h 100,00 %
08/12/2021 08:56 6,2 C 95 % 1004,1 hPa 0,0 mm 0,0 km/h O-SO 251 0 min 0 min 0,000 mm 0,0 UV-I 23 W/m 5,5 C 6,2 C 0,0 km/h 100,00 %
08/12/2021 08:55 6,2 C 95 % 1004,1 hPa 0,0 mm 1,2 km/h O-SO 251 0 min 0 min 0,000 mm 0,0 UV-I 23 W/m 5,5 C 6,2 C 5,3 km/h 100,00 %
08/12/2021 08:54 6,2 C 95 % 1004,2 hPa 0,0 mm 2,0 km/h O-SO 244 0 min 0 min 0,000 mm 0,0 UV-I 23 W/m 5,5 C 6,2 C 5,3 km/h 100,00 %
08/12/2021 08:53 6,2 C 95 % 1004,2 hPa 0,0 mm 0,6 km/h O-SO 244 0 min 0 min 0,000 mm 0,0 UV-I 23 W/m 5,5 C 6,2 C 3,5 km/h 100,00 %
08/12/2021 08:52 6,2 C 95 % 1004,2 hPa 0,0 mm 0,1 km/h S-SO 206 0 min 0 min 0,000 mm 0,0 UV-I 22 W/m 5,5 C 6,2 C 1,8 km/h 96,15 %
08/12/2021 08:51 6,2 C 95 % 1004,2 hPa 0,0 mm 0,1 km/h S-SO 206 0 min 0 min 0,000 mm 0,0 UV-I 21 W/m 5,5 C 6,2 C 1,8 km/h 100,00 %
08/12/2021 08:50 6,2 C 95 % 1004,2 hPa 0,0 mm 0,6 km/h S-SO 206 0 min 0 min 0,000 mm 0,0 UV-I 21 W/m 5,5 C 6,2 C 3,5 km/h 100,00 %
08/12/2021 08:49 6,2 C 95 % 1004,2 hPa 0,0 mm 0,0 km/h S-SO 206 0 min 0 min 0,000 mm 0,0 UV-I 21 W/m 5,5 C 6,2 C 0,0 km/h 100,00 %
08/12/2021 08:48 6,2 C 95 % 1004,1 hPa 0,0 mm 0,0 km/h S-SO 206 0 min 0 min 0,000 mm 0,0 UV-I 21 W/m 5,5 C 6,2 C 0,0 km/h 100,00 %
08/12/2021 08:47 6,2 C 95 % 1004,1 hPa 0,0 mm 0,0 km/h S-SO 206 0 min 0 min 0,000 mm 0,0 UV-I 21 W/m 5,5 C 6,2 C 0,0 km/h 100,00 %
08/12/2021 08:46 6,2 C 95 % 1004,1 hPa 0,0 mm 0,0 km/h S-SO 206 0 min 0 min 0,000 mm 0,0 UV-I 20 W/m 5,5 C 6,2 C 0,0 km/h 100,00 %
08/12/2021 08:45 6,2 C 95 % 1004,1 hPa 0,0 mm 0,0 km/h S-SO 206 0 min 0 min 0,000 mm 0,0 UV-I 19 W/m 5,5 C 6,2 C 0,0 km/h 100,00 %
08/12/2021 08:44 6,2 C 95 % 1004,1 hPa 0,0 mm 0,0 km/h S-SO 206 0 min 0 min 0,000 mm 0,0 UV-I 19 W/m 5,5 C 6,2 C 0,0 km/h 100,00 %
08/12/2021 08:43 6,2 C 95 % 1004,2 hPa 0,0 mm 0,0 km/h S-SO 206 0 min 0 min 0,000 mm 0,0 UV-I 19 W/m 5,5 C 6,2 C 0,0 km/h 100,00 %
08/12/2021 08:42 6,2 C 95 % 1004,2 hPa 0,0 mm 0,0 km/h S-SO 206 0 min 0 min 0,000 mm 0,0 UV-I 18 W/m 5,5 C 6,2 C 0,0 km/h 96,00 %
08/12/2021 08:41 6,2 C 95 % 1004,2 hPa 0,0 mm 0,0 km/h S-SO 206 0 min 0 min 0,000 mm 0,0 UV-I 18 W/m 5,5 C 6,2 C 0,0 km/h 96,00 %
08/12/2021 08:40 6,2 C 95 % 1004,2 hPa 0,0 mm 0,0 km/h S-SO 206 0 min 0 min 0,000 mm 0,0 UV-I 18 W/m 5,5 C 6,2 C 0,0 km/h 100,00 %
08/12/2021 08:39 6,2 C 95 % 1004,2 hPa 0,0 mm 0,0 km/h S-SO 206 0 min 0 min 0,000 mm 0,0 UV-I 18 W/m 5,5 C 6,2 C 0,0 km/h 100,00 %
08/12/2021 08:38 6,2 C 95 % 1004,3 hPa 0,0 mm 0,0 km/h S-SO 206 0 min 0 min 0,000 mm 0,0 UV-I 16 W/m 5,5 C 6,2 C 0,0 km/h 100,00 %
08/12/2021 08:37 6,2 C 95 % 1004,2 hPa 0,0 mm 0,0 km/h S-SO 206 0 min 0 min 0,000 mm 0,0 UV-I 16 W/m 5,5 C 6,2 C 0,0 km/h 100,00 %
08/12/2021 08:36 6,2 C 95 % 1004,2 hPa 0,0 mm 0,0 km/h S-SO 206 0 min 0 min 0,000 mm 0,0 UV-I 16 W/m 5,5 C 6,2 C 0,0 km/h 100,00 %
08/12/2021 08:35 6,2 C 95 % 1004,3 hPa 0,0 mm 0,2 km/h S-SO 206 0 min 0 min 0,000 mm 0,0 UV-I 15 W/m 5,5 C 6,2 C 1,8 km/h 95,65 %
08/12/2021 08:34 6,2 C 95 % 1004,2 hPa 0,0 mm 1,3 km/h S-SO 206 0 min 0 min 0,000 mm 0,0 UV-I 14 W/m 5,5 C 6,2 C 3,5 km/h 100,00 %
08/12/2021 08:33 6,2 C 95 % 1004,2 hPa 0,0 mm 1,9 km/h S-SO 206 0 min 0 min 0,000 mm 0,0 UV-I 14 W/m 5,5 C 6,2 C 5,3 km/h 100,00 %
08/12/2021 08:32 6,2 C 95 % 1004,2 hPa 0,0 mm 0,0 km/h S-SO 206 0 min 0 min 0,000 mm 0,0 UV-I 14 W/m 5,5 C 6,2 C 0,0 km/h 100,00 %
08/12/2021 08:31 6,2 C 95 % 1004,1 hPa 0,0 mm 0,0 km/h S-SO 206 0 min 0 min 0,000 mm 0,0 UV-I 14 W/m 5,5 C 6,2 C 0,0 km/h 96,00 %
08/12/2021 08:30 6,2 C 95 % 1004,1 hPa 0,0 mm 0,0 km/h S-SO 206 0 min 0 min 0,000 mm 0,0 UV-I 14 W/m 5,5 C 6,2 C 0,0 km/h 100,00 %
08/12/2021 08:29 6,3 C 95 % 1004,0 hPa 0,0 mm 0,2 km/h S-SO 206 0 min 0 min 0,000 mm 0,0 UV-I 14 W/m 5,6 C 6,3 C 1,8 km/h 84,00 %
08/12/2021 08:28 6,2 C 95 % 1004,0 hPa 0,0 mm 2,2 km/h S-SO 206 0 min 0 min 0,000 mm 0,0 UV-I 14 W/m 5,5 C 6,2 C 3,5 km/h 95,65 %
08/12/2021 08:27 6,3 C 95 % 1004,0 hPa 0,0 mm 0,0 km/h S-SO 206 0 min 0 min 0,000 mm 0,0 UV-I 14 W/m 5,6 C 6,3 C 0,0 km/h 96,00 %
08/12/2021 08:26 6,3 C 95 % 1003,9 hPa 0,0 mm 0,3 km/h S-SO 206 0 min 0 min 0,000 mm 0,0 UV-I 14 W/m 5,6 C 6,3 C 1,8 km/h 95,83 %
08/12/2021 08:25 6,3 C 95 % 1003,8 hPa 0,0 mm 0,8 km/h S-SO 206 0 min 0 min 0,000 mm 0,0 UV-I 14 W/m 5,6 C 6,3 C 1,8 km/h 100,00 %
08/12/2021 08:24 6,3 C 95 % 1003,8 hPa 0,0 mm 0,0 km/h S-SO 206 0 min 0 min 0,000 mm 0,0 UV-I 13 W/m 5,6 C 6,3 C 0,0 km/h 96,00 %
08/12/2021 08:23 6,3 C 95 % 1003,8 hPa 0,0 mm 0,0 km/h S-SO 206 0 min 0 min 0,000 mm 0,0 UV-I 12 W/m 5,6 C 6,3 C 0,0 km/h 100,00 %
08/12/2021 08:22 6,3 C 95 % 1003,7 hPa 0,0 mm 0,1 km/h S-SO 206 0 min 0 min 0,000 mm 0,0 UV-I 12 W/m 5,6 C 6,3 C 1,8 km/h 95,83 %
08/12/2021 08:21 6,3 C 95 % 1003,8 hPa 0,0 mm 0,3 km/h S-SO 206 0 min 0 min 0,000 mm 0,0 UV-I 11 W/m 5,6 C 6,3 C 1,8 km/h 95,83 %
08/12/2021 08:20 6,3 C 95 % 1003,8 hPa 0,0 mm 0,8 km/h S-SO 206 0 min 0 min 0,000 mm 0,0 UV-I 10 W/m 5,6 C 6,3 C 3,5 km/h 96,00 %
08/12/2021 08:19 6,3 C 95 % 1003,8 hPa 0,0 mm 0,0 km/h S-SO 206 0 min 0 min 0,000 mm 0,0 UV-I 9 W/m 5,6 C 6,3 C 0,0 km/h 100,00 %
08/12/2021 08:18 6,3 C 95 % 1003,8 hPa 0,0 mm 0,8 km/h S-SO 206 0 min 0 min 0,000 mm 0,0 UV-I 8 W/m 5,6 C 6,3 C 3,5 km/h 95,83 %
08/12/2021 08:17 6,3 C 95 % 1003,7 hPa 0,0 mm 0,4 km/h S-SO 206 0 min 0 min 0,000 mm 0,0 UV-I 7 W/m 5,6 C 6,3 C 1,8 km/h 100,00 %
08/12/2021 08:16 6,3 C 95 % 1003,8 hPa 0,0 mm 2,9 km/h S-SO 206 0 min 0 min 0,000 mm 0,0 UV-I 7 W/m 5,6 C 6,3 C 3,5 km/h 100,00 %
08/12/2021 08:15 6,3 C 95 % 1003,7 hPa 0,0 mm 3,3 km/h S-SO 206 0 min 0 min 0,000 mm 0,0 UV-I 5 W/m 5,6 C 6,3 C 5,3 km/h 100,00 %
08/12/2021 08:14 6,3 C 95 % 1003,6 hPa 0,0 mm 4,0 km/h S-SO 205 0 min 0 min 0,000 mm 0,0 UV-I 5 W/m 5,6 C 6,3 C 7,1 km/h 100,00 %
08/12/2021 08:13 6,3 C 95 % 1003,4 hPa 0,0 mm 1,9 km/h E-SE 121 0 min 0 min 0,000 mm 0,0 UV-I 2 W/m 5,6 C 6,3 C 3,5 km/h 100,00 %
08/12/2021 08:12 6,3 C 95 % 1003,2 hPa 0,0 mm 1,9 km/h E-SE 121 0 min 0 min 0,000 mm 0,0 UV-I 0 W/m 5,6 C 6,3 C 3,5 km/h 96,43 %
08/12/2021 08:11 6,3 C 95 % 1003,0 hPa 0,0 mm 4,1 km/h E-SE 121 0 min 0 min 0,000 mm 0,0 UV-I 0 W/m 5,6 C 6,3 C 5,3 km/h 100,00 %
08/12/2021 08:10 6,3 C 95 % 1003,0 hPa 0,0 mm 4,8 km/h E-SE 121 0 min 0 min 0,000 mm 0,0 UV-I 0 W/m 5,6 C 6,3 C 5,3 km/h 100,00 %
08/12/2021 08:09 6,3 C 95 % 1003,0 hPa 0,0 mm 3,1 km/h E-SE 121 0 min 0 min 0,000 mm 0,0 UV-I 0 W/m 5,6 C 6,3 C 3,5 km/h 100,00 %
08/12/2021 08:08 6,3 C 95 % 1003,1 hPa 0,0 mm 3,2 km/h E-SE 121 0 min 0 min 0,000 mm 0,0 UV-I 0 W/m 5,6 C 6,3 C 5,3 km/h 100,00 %
08/12/2021 08:07 6,3 C 95 % 1003,1 hPa 0,0 mm 3,8 km/h E-SE 121 0 min 0 min 0,000 mm 0,0 UV-I 0 W/m 5,6 C 6,3 C 5,3 km/h 100,00 %
08/12/2021 08:06 6,3 C 95 % 1003,1 hPa 0,0 mm 2,0 km/h E-SE 121 0 min 0 min 0,000 mm 0,0 UV-I 0 W/m 5,6 C 6,3 C 5,3 km/h 100,00 %
08/12/2021 08:05 6,3 C 95 % 1003,1 hPa 0,0 mm 0,0 km/h N-NO 346 0 min 0 min 0,000 mm 0,0 UV-I 0 W/m 5,6 C 6,3 C 0,0 km/h 100,00 %
08/12/2021 08:04 6,3 C 95 % 1003,2 hPa 0,0 mm 0,0 km/h N-NO 344 0 min 0 min 0,000 mm 0,0 UV-I 0 W/m 5,6 C 6,3 C 0,0 km/h 100,00 %
08/12/2021 08:03 6,4 C 95 % 1003,1 hPa 0,0 mm 0,0 km/h N-NO 344 0 min 0 min 0,000 mm 0,0 UV-I 0 W/m 5,7 C 6,4 C 0,0 km/h 92,31 %
08/12/2021 08:02 6,4 C 95 % 1003,1 hPa 0,0 mm 0,0 km/h N-NO 344 0 min 0 min 0,000 mm 0,0 UV-I 0 W/m 5,7 C 6,4 C 0,0 km/h 100,00 %
08/12/2021 08:01 6,4 C 95 % 1003,0 hPa 0,0 mm 0,0 km/h N-NO 343 0 min 0 min 0,000 mm 0,0 UV-I 0 W/m 5,7 C 6,4 C 0,0 km/h 100,00 %
08/12/2021 08:00 6,4 C 95 % 1003,1 hPa 0,0 mm 0,0 km/h N-NO 343 0 min 0 min 0,000 mm 0,0 UV-I 0 W/m 5,7 C 6,4 C 0,0 km/h 95,65 %
08/12/2021 07:59 6,3 C 95 % 1003,1 hPa 0,0 mm 0,0 km/h N-NO 343 0 min 0 min 0,000 mm 0,0 UV-I 0 W/m 5,6 C 6,3 C 0,0 km/h 95,83 %
08/12/2021 07:58 6,4 C 95 % 1003,3 hPa 0,0 mm 0,0 km/h N-NO 343 0 min 0 min 0,000 mm 0,0 UV-I 0 W/m 5,7 C 6,4 C 0,0 km/h 100,00 %
08/12/2021 07:57 6,4 C 95 % 1003,2 hPa 0,0 mm 0,0 km/h N-NO 344 0 min 0 min 0,000 mm 0,0 UV-I 0 W/m 5,7 C 6,4 C 0,0 km/h 95,83 %
08/12/2021 07:56 6,4 C 95 % 1003,1 hPa 0,0 mm 0,0 km/h N-NO 344 0 min 0 min 0,000 mm 0,0 UV-I 0 W/m 5,7 C 6,4 C 0,0 km/h 100,00 %
08/12/2021 07:55 6,4 C 95 % 1003,2 hPa 0,0 mm 0,0 km/h N-NO 344 0 min 0 min 0,000 mm 0,0 UV-I 0 W/m 5,7 C 6,4 C 0,0 km/h 100,00 %
08/12/2021 07:54 6,4 C 95 % 1003,1 hPa 0,0 mm 0,0 km/h N-NO 344 0 min 0 min 0,000 mm 0,0 UV-I 0 W/m 5,7 C 6,4 C 0,0 km/h 100,00 %
08/12/2021 07:53 6,4 C 95 % 1003,1 hPa 0,0 mm 0,0 km/h N-NO 344 0 min 0 min 0,000 mm 0,0 UV-I 0 W/m 5,7 C 6,4 C 0,0 km/h 87,50 %
08/12/2021 07:52 6,4 C 95 % 1003,1 hPa 0,0 mm 0,0 km/h N-NO 344 0 min 0 min 0,000 mm 0,0 UV-I 0 W/m 5,7 C 6,4 C 0,0 km/h 96,55 %
08/12/2021 07:51 6,4 C 95 % 1003,1 hPa 0,0 mm 0,0 km/h N-NO 344 0 min 0 min 0,000 mm 0,0 UV-I 0 W/m 5,7 C 6,4 C 0,0 km/h 100,00 %
08/12/2021 07:50 6,4 C 95 % 1003,0 hPa 0,0 mm 0,0 km/h N-NO 344 0 min 0 min 0,000 mm 0,0 UV-I 0 W/m 5,7 C 6,4 C 0,0 km/h 90,91 %
08/12/2021 07:49 6,4 C 95 % 1003,0 hPa 0,0 mm 0,0 km/h N-NO 344 0 min 0 min 0,000 mm 0,0 UV-I 0 W/m 5,7 C 6,4 C 0,0 km/h 100,00 %
08/12/2021 07:48 6,4 C 95 % 1002,9 hPa 0,0 mm 0,0 km/h N-NO 344 0 min 0 min 0,000 mm 0,0 UV-I 0 W/m 5,7 C 6,4 C 0,0 km/h 95,92 %
08/12/2021 07:46 6,4 C 95 % 1002,9 hPa 0,0 mm 0,0 km/h N-NO 344 0 min 0 min 0,000 mm 0,0 UV-I 0 W/m 5,7 C 6,4 C 0,0 km/h 96,00 %
08/12/2021 07:45 6,4 C 95 % 1003,0 hPa 0,0 mm 0,0 km/h N-NO 344 0 min 0 min 0,000 mm 0,0 UV-I 0 W/m 5,7 C 6,4 C 0,0 km/h 100,00 %
08/12/2021 07:44 6,4 C 95 % 1003,0 hPa 0,0 mm 0,0 km/h N-NO 344 0 min 0 min 0,000 mm 0,0 UV-I 0 W/m 5,7 C 6,4 C 0,0 km/h 95,83 %
08/12/2021 07:43 6,4 C 95 % 1003,1 hPa 0,0 mm 0,0 km/h N-NO 344 0 min 0 min 0,000 mm 0,0 UV-I 0 W/m 5,7 C 6,4 C 0,0 km/h 95,83 %
08/12/2021 07:42 6,4 C 95 % 1003,2 hPa 0,0 mm 0,0 km/h N-NO 344 0 min 0 min 0,000 mm 0,0 UV-I 0 W/m 5,7 C 6,4 C 0,0 km/h 100,00 %
08/12/2021 07:41 6,4 C 95 % 1003,3 hPa 0,0 mm 0,0 km/h N-NO 344 0 min 0 min 0,000 mm 0,0 UV-I 0 W/m 5,7 C 6,4 C 0,0 km/h 100,00 %
08/12/2021 07:40 6,4 C 95 % 1003,4 hPa 0,0 mm 0,0 km/h N-NO 344 0 min 0 min 0,000 mm 0,0 UV-I 0 W/m 5,7 C 6,4 C 0,0 km/h 100,00 %
08/12/2021 07:39 6,4 C 95 % 1003,5 hPa 0,0 mm 0,0 km/h N-NO 344 0 min 0 min 0,000 mm 0,0 UV-I 0 W/m 5,7 C 6,4 C 0,0 km/h 100,00 %
08/12/2021 07:38 6,4 C 95 % 1003,5 hPa 0,0 mm 0,0 km/h N-NO 344 0 min 0 min 0,000 mm 0,0 UV-I 0 W/m 5,7 C 6,4 C 0,0 km/h 100,00 %
08/12/2021 07:37 6,4 C 95 % 1003,5 hPa 0,0 mm 0,0 km/h N-NO 344 0 min 0 min 0,000 mm 0,0 UV-I 0 W/m 5,7 C 6,4 C 0,0 km/h 100,00 %
08/12/2021 07:36 6,4 C 95 % 1003,6 hPa 0,0 mm 0,0 km/h N-NO 344 0 min 0 min 0,000 mm 0,0 UV-I 0 W/m 5,7 C 6,4 C 0,0 km/h 95,83 %
08/12/2021 07:35 6,4 C 95 % 1003,7 hPa 0,0 mm 0,0 km/h N-NO 344 0 min 0 min 0,000 mm 0,0 UV-I 0 W/m 5,7 C 6,4 C 0,0 km/h 100,00 %
08/12/2021 07:34 6,4 C 95 % 1003,7 hPa 0,0 mm 0,0 km/h N-NO 344 0 min 0 min 0,000 mm 0,0 UV-I 0 W/m 5,7 C 6,4 C 0,0 km/h 100,00 %
08/12/2021 07:33 6,4 C 95 % 1003,7 hPa 0,0 mm 0,0 km/h N-NO 344 0 min 0 min 0,000 mm 0,0 UV-I 0 W/m 5,7 C 6,4 C 0,0 km/h 96,30 %
08/12/2021 07:32 6,4 C 95 % 1003,8 hPa 0,0 mm 0,0 km/h N-NO 344 0 min 0 min 0,000 mm 0,0 UV-I 0 W/m 5,7 C 6,4 C 0,0 km/h 100,00 %
08/12/2021 07:31 6,4 C 95 % 1003,8 hPa 0,2 mm 0,0 km/h N-NO 344 0 min 0 min 0,000 mm 0,0 UV-I 0 W/m 5,7 C 6,4 C 0,0 km/h 100,00 %
08/12/2021 07:30 6,4 C 95 % 1003,8 hPa 0,0 mm 0,0 km/h N-NO 344 0 min 0 min 0,000 mm 0,0 UV-I 0 W/m 5,7 C 6,4 C 0,0 km/h 97,44 %
08/12/2021 07:29 6,4 C 95 % 1003,8 hPa 0,0 mm 0,0 km/h N-NO 344 0 min 0 min 0,000 mm 0,0 UV-I 0 W/m 5,7 C 6,4 C 0,0 km/h 97,76 %
08/12/2021 07:28 6,4 C 95 % 1003,8 hPa 0,0 mm 0,0 km/h N-NO 344 0 min 0 min 0,000 mm 0,0 UV-I 0 W/m 5,7 C 6,4 C 0,0 km/h 92,00 %
08/12/2021 07:27 6,4 C 95 % 1003,8 hPa 0,0 mm 0,0 km/h N-NO 344 0 min 0 min 0,000 mm 0,0 UV-I 0 W/m 5,7 C 6,4 C 0,0 km/h 100,00 %
08/12/2021 07:26 6,4 C 95 % 1003,8 hPa 0,0 mm 0,0 km/h N-NO 344 0 min 0 min 0,000 mm 0,0 UV-I 0 W/m 5,7 C 6,4 C 0,0 km/h 95,83 %
08/12/2021 07:25 6,4 C 95 % 1003,8 hPa 0,0 mm 0,0 km/h N 360 0 min 0 min 0,000 mm 0,0 UV-I 0 W/m 5,7 C 6,4 C 0,0 km/h 100,00 %
08/12/2021 07:24 6,4 C 95 % 1003,7 hPa 0,0 mm 0,0 km/h N 360 0 min 0 min 0,000 mm 0,0 UV-I 0 W/m 5,7 C 6,4 C 0,0 km/h 96,00 %
08/12/2021 07:23 6,4 C 95 % 1003,7 hPa 0,0 mm 0,0 km/h N 360 0 min 0 min 0,000 mm 0,0 UV-I 0 W/m 5,7 C 6,4 C 0,0 km/h 96,00 %
08/12/2021 07:22 6,4 C 95 % 1003,6 hPa 0,0 mm 0,0 km/h N 360 0 min 0 min 0,000 mm 0,0 UV-I 0 W/m 5,7 C 6,4 C 0,0 km/h 100,00 %
08/12/2021 07:21 6,4 C 95 % 1003,6 hPa 0,0 mm 0,0 km/h N 360 0 min 0 min 0,000 mm 0,0 UV-I 0 W/m 5,7 C 6,4 C 0,0 km/h 91,67 %
08/12/2021 07:20 6,4 C 95 % 1003,7 hPa 0,0 mm 0,0 km/h N 360 0 min 0 min 0,000 mm 0,0 UV-I 0 W/m 5,7 C 6,4 C 0,0 km/h 100,00 %
08/12/2021 07:19 6,4 C 95 % 1003,7 hPa 0,0 mm 0,0 km/h N 360 0 min 0 min 0,000 mm 0,0 UV-I 0 W/m 5,7 C 6,4 C 0,0 km/h 91,67 %
08/12/2021 07:18 6,4 C 95 % 1003,6 hPa 0,0 mm 0,0 km/h N 360 0 min 0 min 0,000 mm 0,0 UV-I 0 W/m 5,7 C 6,4 C 0,0 km/h 100,00 %
08/12/2021 07:17 6,4 C 95 % 1003,6 hPa 0,0 mm 0,0 km/h N 360 0 min 0 min 0,000 mm 0,0 UV-I 0 W/m 5,7 C 6,4 C 0,0 km/h 95,83 %
08/12/2021 07:16 6,4 C 95 % 1003,6 hPa 0,2 mm 0,0 km/h N 360 0 min 0 min 0,000 mm 0,0 UV-I 0 W/m 5,7 C 6,4 C 0,0 km/h 93,10 %
08/12/2021 07:15 6,4 C 95 % 1003,6 hPa 0,0 mm 0,0 km/h N 360 0 min 0 min 0,000 mm 0,0 UV-I 0 W/m 5,7 C 6,4 C 0,0 km/h 96,43 %
08/12/2021 07:14 6,4 C 95 % 1003,6 hPa 0,0 mm 0,0 km/h N 360 0 min 0 min 0,000 mm 0,0 UV-I 0 W/m 5,7 C 6,4 C 0,0 km/h 83,33 %
08/12/2021 07:13 6,4 C 95 % 1003,6 hPa 0,0 mm 0,0 km/h N 360 0 min 0 min 0,000 mm 0,0 UV-I 0 W/m 5,7 C 6,4 C 0,0 km/h 100,00 %
08/12/2021 07:12 6,4 C 95 % 1003,6 hPa 0,0 mm 0,0 km/h N 360 0 min 0 min 0,000 mm 0,0 UV-I 0 W/m 5,7 C 6,4 C 0,0 km/h 91,67 %
08/12/2021 07:11 6,4 C 95 % 1003,7 hPa 0,0 mm 0,0 km/h N 360 0 min 0 min 0,000 mm 0,0 UV-I 0 W/m 5,7 C 6,4 C 0,0 km/h 100,00 %
08/12/2021 07:10 6,4 C 95 % 1003,7 hPa 0,0 mm 0,0 km/h N 360 0 min 0 min 0,000 mm 0,0 UV-I 0 W/m 5,7 C 6,4 C 0,0 km/h 91,67 %
08/12/2021 07:09 6,4 C 95 % 1003,8 hPa 0,0 mm 0,0 km/h N 360 0 min 0 min 0,000 mm 0,0 UV-I 0 W/m 5,7 C 6,4 C 0,0 km/h 93,55 %
08/12/2021 07:08 6,4 C 95 % 1003,8 hPa 0,2 mm 0,0 km/h N 360 0 min 0 min 0,000 mm 0,0 UV-I 0 W/m 5,7 C 6,4 C 0,0 km/h 100,00 %
08/12/2021 07:07 6,4 C 95 % 1003,9 hPa 0,0 mm 0,0 km/h N 360 0 min 0 min 0,000 mm 0,0 UV-I 0 W/m 5,7 C 6,4 C 0,0 km/h 100,00 %
08/12/2021 07:06 6,4 C 95 % 1004,0 hPa 0,0 mm 0,0 km/h N 360 0 min 0 min 0,000 mm 0,0 UV-I 0 W/m 5,7 C 6,4 C 0,0 km/h 96,00 %
08/12/2021 07:05 6,4 C 95 % 1004,0 hPa 0,2 mm 0,0 km/h N 360 0 min 0 min 0,000 mm 0,0 UV-I 0 W/m 5,7 C 6,4 C 0,0 km/h 95,83 %
08/12/2021 07:04 6,4 C 95 % 1004,1 hPa 0,0 mm 1,2 km/h N 360 0 min 0 min 0,000 mm 0,0 UV-I 0 W/m 5,7 C 6,4 C 3,5 km/h 95,83 %
08/12/2021 07:03 6,4 C 95 % 1004,1 hPa 0,0 mm 1,0 km/h N 360 0 min 0 min 0,000 mm 0,0 UV-I 0 W/m 5,7 C 6,4 C 3,5 km/h 95,65 %
08/12/2021 07:02 6,4 C 95 % 1004,0 hPa 0,0 mm 1,5 km/h N 360 0 min 0 min 0,000 mm 0,0 UV-I 0 W/m 5,7 C 6,4 C 3,5 km/h 100,00 %
08/12/2021 07:01 6,4 C 95 % 1004,0 hPa 0,2 mm 2,8 km/h N 5 0 min 0 min 0,000 mm 0,0 UV-I 0 W/m 5,7 C 6,4 C 7,1 km/h 92,31 %
08/12/2021 07:00 6,4 C 95 % 1004,0 hPa 0,0 mm 2,9 km/h O 267 0 min 0 min 0,000 mm 0,0 UV-I 0 W/m 5,7 C 6,4 C 5,3 km/h 96,30 %
08/12/2021 06:59 6,4 C 95 % 1004,0 hPa 0,0 mm 3,5 km/h O 267 0 min 0 min 0,000 mm 0,0 UV-I 0 W/m 5,7 C 6,4 C 5,3 km/h 100,00 %
08/12/2021 06:58 6,4 C 95 % 1004,1 hPa 0,0 mm 2,9 km/h O 266 0 min 0 min 0,000 mm 0,0 UV-I 0 W/m 5,7 C 6,4 C 5,3 km/h 100,00 %
08/12/2021 06:57 6,4 C 95 % 1004,1 hPa 0,0 mm 2,5 km/h O 266 0 min 0 min 0,000 mm 0,0 UV-I 0 W/m 5,7 C 6,4 C 3,5 km/h 96,00 %
08/12/2021 06:56 6,4 C 95 % 1004,1 hPa 0,2 mm 2,0 km/h O 266 0 min 0 min 0,000 mm 0,0 UV-I 0 W/m 5,7 C 6,4 C 3,5 km/h 96,30 %
08/12/2021 06:55 6,4 C 95 % 1004,1 hPa 0,2 mm 0,5 km/h O 265 0 min 0 min 0,000 mm 0,0 UV-I 0 W/m 5,7 C 6,4 C 3,5 km/h 98,33 %
08/12/2021 06:53 6,4 C 95 % 1004,1 hPa 0,0 mm 1,3 km/h O 266 0 min 0 min 0,000 mm 0,0 UV-I 0 W/m 5,7 C 6,4 C 1,8 km/h 100,00 %
08/12/2021 06:52 6,4 C 95 % 1004,1 hPa 0,0 mm 0,7 km/h O 266 0 min 0 min 0,000 mm 0,0 UV-I 0 W/m 5,7 C 6,4 C 3,5 km/h 94,44 %
08/12/2021 06:51 6,4 C 95 % 1004,2 hPa 0,0 mm 1,5 km/h O 265 0 min 0 min 0,000 mm 0,0 UV-I 0 W/m 5,7 C 6,4 C 3,5 km/h 96,67 %
08/12/2021 06:50 6,4 C 95 % 1004,2 hPa 0,0 mm 2,1 km/h O 266 0 min 0 min 0,000 mm 0,0 UV-I 0 W/m 5,7 C 6,4 C 5,3 km/h 100,00 %
08/12/2021 06:49 6,4 C 95 % 1004,2 hPa 0,2 mm 0,6 km/h O 265 0 min 0 min 0,000 mm 0,0 UV-I 0 W/m 5,7 C 6,4 C 3,5 km/h 100,00 %
08/12/2021 06:48 6,4 C 95 % 1004,2 hPa 0,0 mm 1,9 km/h O 265 0 min 0 min 0,000 mm 0,0 UV-I 0 W/m 5,7 C 6,4 C 3,5 km/h 94,44 %
08/12/2021 06:47 6,4 C 95 % 1004,2 hPa 0,0 mm 1,5 km/h O 265 0 min 0 min 0,000 mm 0,0 UV-I 0 W/m 5,7 C 6,4 C 3,5 km/h 100,00 %
08/12/2021 06:46 6,4 C 95 % 1004,2 hPa 0,0 mm 2,1 km/h O 265 0 min 0 min 0,000 mm 0,0 UV-I 0 W/m 5,7 C 6,4 C 3,5 km/h 96,15 %
08/12/2021 06:45 6,4 C 95 % 1004,2 hPa 0,0 mm 1,8 km/h O 265 0 min 0 min 0,000 mm 0,0 UV-I 0 W/m 5,7 C 6,4 C 3,5 km/h 100,00 %
08/12/2021 06:44 6,4 C 95 % 1004,1 hPa 0,0 mm 2,9 km/h O 265 0 min 0 min 0,000 mm 0,0 UV-I 0 W/m 5,7 C 6,4 C 5,3 km/h 100,00 %
08/12/2021 06:43 6,4 C 95 % 1004,1 hPa 0,0 mm 1,4 km/h O 265 0 min 0 min 0,000 mm 0,0 UV-I 0 W/m 5,7 C 6,4 C 3,5 km/h 100,00 %
08/12/2021 06:42 6,4 C 95 % 1004,1 hPa 0,0 mm 1,0 km/h O 265 0 min 0 min 0,000 mm 0,0 UV-I 0 W/m 5,7 C 6,4 C 3,5 km/h 100,00 %
08/12/2021 06:41 6,4 C 95 % 1004,0 hPa 0,2 mm 2,7 km/h O 265 0 min 0 min 0,000 mm 0,0 UV-I 0 W/m 5,7 C 6,4 C 5,3 km/h 100,00 %
08/12/2021 06:40 6,4 C 95 % 1004,0 hPa 0,0 mm 2,4 km/h O 265 0 min 0 min 0,000 mm 0,0 UV-I 0 W/m 5,7 C 6,4 C 5,3 km/h 91,67 %
08/12/2021 06:39 6,4 C 95 % 1004,0 hPa 0,0 mm 1,8 km/h O 266 0 min 0 min 0,000 mm 0,0 UV-I 0 W/m 5,7 C 6,4 C 3,5 km/h 95,83 %
08/12/2021 06:38 6,4 C 95 % 1004,0 hPa 0,0 mm 2,4 km/h O 266 0 min 0 min 0,000 mm 0,0 UV-I 0 W/m 5,7 C 6,4 C 5,3 km/h 96,00 %
08/12/2021 06:37 6,4 C 95 % 1003,9 hPa 0,0 mm 0,4 km/h O 266 0 min 0 min 0,000 mm 0,0 UV-I 0 W/m 5,7 C 6,4 C 1,8 km/h 100,00 %
08/12/2021 06:36 6,4 C 95 % 1003,9 hPa 0,0 mm 0,6 km/h O 266 0 min 0 min 0,000 mm 0,0 UV-I 0 W/m 5,7 C 6,4 C 1,8 km/h 96,43 %
08/12/2021 06:35 6,4 C 95 % 1003,8 hPa 0,2 mm 1,2 km/h O 266 0 min 0 min 0,000 mm 0,0 UV-I 0 W/m 5,7 C 6,4 C 3,5 km/h 95,83 %
08/12/2021 06:34 6,4 C 95 % 1003,8 hPa 0,0 mm 1,4 km/h O 266 0 min 0 min 0,000 mm 0,0 UV-I 0 W/m 5,7 C 6,4 C 3,5 km/h 100,00 %
08/12/2021 06:33 6,4 C 95 % 1003,8 hPa 0,0 mm 0,4 km/h O 266 0 min 0 min 0,000 mm 0,0 UV-I 0 W/m 5,7 C 6,4 C 1,8 km/h 96,30 %
08/12/2021 06:32 6,4 C 95 % 1003,7 hPa 0,0 mm 3,8 km/h O 266 0 min 0 min 0,000 mm 0,0 UV-I 0 W/m 5,7 C 6,4 C 5,3 km/h 100,00 %
08/12/2021 06:31 6,4 C 95 % 1003,7 hPa 0,0 mm 1,1 km/h O 265 0 min 0 min 0,000 mm 0,0 UV-I 0 W/m 5,7 C 6,4 C 3,5 km/h 96,43 %
08/12/2021 06:30 6,4 C 95 % 1003,7 hPa 0,0 mm 0,1 km/h O 265 0 min 0 min 0,000 mm 0,0 UV-I 0 W/m 5,7 C 6,4 C 1,8 km/h 100,00 %
08/12/2021 06:29 6,4 C 95 % 1003,7 hPa 0,2 mm 2,1 km/h O 265 0 min 0 min 0,000 mm 0,0 UV-I 0 W/m 5,7 C 6,4 C 3,5 km/h 100,00 %
08/12/2021 06:28 6,4 C 95 % 1003,6 hPa 0,0 mm 2,4 km/h O 265 0 min 0 min 0,000 mm 0,0 UV-I 0 W/m 5,7 C 6,4 C 3,5 km/h 100,00 %
08/12/2021 06:27 6,4 C 95 % 1003,7 hPa 0,0 mm 2,5 km/h O 265 0 min 0 min 0,000 mm 0,0 UV-I 0 W/m 5,7 C 6,4 C 5,3 km/h 95,83 %
08/12/2021 06:26 6,4 C 95 % 1003,6 hPa 0,0 mm 1,3 km/h O 265 0 min 0 min 0,000 mm 0,0 UV-I 0 W/m 5,7 C 6,4 C 3,5 km/h 100,00 %
08/12/2021 06:25 6,4 C 95 % 1003,6 hPa 0,0 mm 0,7 km/h O 265 0 min 0 min 0,000 mm 0,0 UV-I 0 W/m 5,7 C 6,4 C 3,5 km/h 95,65 %
08/12/2021 06:24 6,5 C 95 % 1003,6 hPa 0,2 mm 0,1 km/h O 265 0 min 0 min 0,000 mm 0,0 UV-I 0 W/m 5,8 C 6,5 C 1,8 km/h 100,00 %
08/12/2021 06:23 6,5 C 95 % 1003,6 hPa 0,0 mm 2,9 km/h O 265 0 min 0 min 0,000 mm 0,0 UV-I 0 W/m 5,8 C 6,5 C 7,1 km/h 100,00 %
08/12/2021 06:21 6,5 C 95 % 1003,6 hPa 0,2 mm 4,5 km/h O 264 0 min 0 min 0,000 mm 0,0 UV-I 0 W/m 5,8 C 6,5 C 7,1 km/h 100,00 %
08/12/2021 06:20 6,5 C 95 % 1003,6 hPa 0,0 mm 1,5 km/h O 263 0 min 0 min 0,000 mm 0,0 UV-I 0 W/m 5,8 C 6,5 C 1,8 km/h 95,65 %
08/12/2021 06:19 6,5 C 95 % 1003,7 hPa 0,0 mm 2,4 km/h O 263 0 min 0 min 0,000 mm 0,0 UV-I 0 W/m 5,8 C 6,5 C 3,5 km/h 100,00 %
08/12/2021 06:18 6,6 C 95 % 1003,7 hPa 0,0 mm 3,2 km/h O 264 0 min 0 min 0,000 mm 0,0 UV-I 0 W/m 5,9 C 6,6 C 5,3 km/h 100,00 %
08/12/2021 06:17 6,6 C 95 % 1003,7 hPa 0,0 mm 3,6 km/h O 264 0 min 0 min 0,000 mm 0,0 UV-I 0 W/m 5,9 C 6,6 C 5,3 km/h 100,00 %
08/12/2021 06:16 6,6 C 95 % 1003,7 hPa 0,0 mm 4,1 km/h O 265 0 min 0 min 0,000 mm 0,0 UV-I 0 W/m 5,9 C 6,6 C 5,3 km/h 100,00 %
08/12/2021 06:15 6,6 C 95 % 1003,6 hPa 0,0 mm 4,5 km/h O 275 0 min 0 min 0,000 mm 0,0 UV-I 0 W/m 5,9 C 6,6 C 5,3 km/h 100,00 %
08/12/2021 06:14 6,6 C 95 % 1003,6 hPa 0,0 mm 2,9 km/h O 276 0 min 0 min 0,000 mm 0,0 UV-I 0 W/m 5,9 C 6,6 C 5,3 km/h 100,00 %
08/12/2021 06:13 6,6 C 95 % 1003,5 hPa 0,0 mm 1,2 km/h O 276 0 min 0 min 0,000 mm 0,0 UV-I 0 W/m 5,9 C 6,6 C 3,5 km/h 100,00 %
08/12/2021 06:12 6,6 C 95 % 1003,5 hPa 0,0 mm 0,7 km/h O 276 0 min 0 min 0,000 mm 0,0 UV-I 0 W/m 5,9 C 6,6 C 1,8 km/h 100,00 %
08/12/2021 06:11 6,6 C 95 % 1003,5 hPa 0,0 mm 1,5 km/h O 276 0 min 0 min 0,000 mm 0,0 UV-I 0 W/m 5,9 C 6,6 C 3,5 km/h 100,00 %
08/12/2021 06:10 6,6 C 95 % 1003,4 hPa 0,0 mm 2,9 km/h O 276 0 min 0 min 0,000 mm 0,0 UV-I 0 W/m 5,9 C 6,6 C 5,3 km/h 100,00 %
08/12/2021 06:09 6,6 C 95 % 1003,4 hPa 0,0 mm 2,8 km/h O 276 0 min 0 min 0,000 mm 0,0 UV-I 0 W/m 5,9 C 6,6 C 5,3 km/h 100,00 %
08/12/2021 06:08 6,6 C 95 % 1003,3 hPa 0,0 mm 2,1 km/h O 277 0 min 0 min 0,000 mm 0,0 UV-I 0 W/m 5,9 C 6,6 C 3,5 km/h 100,00 %
08/12/2021 06:07 6,6 C 95 % 1003,3 hPa 0,0 mm 1,9 km/h O 277 0 min 0 min 0,000 mm 0,0 UV-I 0 W/m 5,9 C 6,6 C 3,5 km/h 100,00 %
08/12/2021 06:06 6,6 C 95 % 1003,1 hPa 0,0 mm 2,3 km/h O 277 0 min 0 min 0,000 mm 0,0 UV-I 0 W/m 5,9 C 6,6 C 3,5 km/h 100,00 %
08/12/2021 06:05 6,6 C 95 % 1003,1 hPa 0,0 mm 2,5 km/h O 277 0 min 0 min 0,000 mm 0,0 UV-I 0 W/m 5,9 C 6,6 C 3,5 km/h 100,00 %
08/12/2021 06:04 6,6 C 95 % 1003,0 hPa 0,0 mm 2,2 km/h O 277 0 min 0 min 0,000 mm 0,0 UV-I 0 W/m 5,9 C 6,6 C 3,5 km/h 95,83 %
08/12/2021 06:03 6,6 C 95 % 1003,0 hPa 0,0 mm 2,9 km/h O 277 0 min 0 min 0,000 mm 0,0 UV-I 0 W/m 5,9 C 6,6 C 5,3 km/h 100,00 %
08/12/2021 06:02 6,6 C 95 % 1002,9 hPa 0,0 mm 2,5 km/h O 277 0 min 0 min 0,000 mm 0,0 UV-I 0 W/m 5,9 C 6,6 C 3,5 km/h 96,00 %
08/12/2021 06:01 6,6 C 95 % 1002,9 hPa 0,0 mm 2,5 km/h O 277 0 min 0 min 0,000 mm 0,0 UV-I 0 W/m 5,9 C 6,6 C 5,3 km/h 97,87 %
08/12/2021 05:59 6,6 C 95 % 1002,8 hPa 0,0 mm 3,2 km/h O 277 0 min 0 min 0,000 mm 0,0 UV-I 0 W/m 5,9 C 6,6 C 3,5 km/h 95,83 %
08/12/2021 05:58 6,6 C 95 % 1002,9 hPa 0,0 mm 2,4 km/h O 277 0 min 0 min 0,000 mm 0,0 UV-I 0 W/m 5,9 C 6,6 C 5,3 km/h 100,00 %
08/12/2021 05:57 6,6 C 95 % 1002,8 hPa 0,0 mm 0,0 km/h O 277 0 min 0 min 0,000 mm 0,0 UV-I 0 W/m 5,9 C 6,6 C 0,0 km/h 91,67 %
08/12/2021 05:56 6,5 C 95 % 1002,9 hPa 0,0 mm 0,0 km/h O 277 0 min 0 min 0,000 mm 0,0 UV-I 0 W/m 5,8 C 6,5 C 0,0 km/h 100,00 %
08/12/2021 05:55 6,6 C 95 % 1002,8 hPa 0,0 mm 0,0 km/h O 277 0 min 0 min 0,000 mm 0,0 UV-I 0 W/m 5,9 C 6,6 C 0,0 km/h 96,00 %
08/12/2021 05:54 6,5 C 95 % 1002,8 hPa 0,0 mm 0,0 km/h O 277 0 min 0 min 0,000 mm 0,0 UV-I 0 W/m 5,8 C 6,5 C 0,0 km/h 100,00 %
08/12/2021 05:53 6,6 C 95 % 1002,9 hPa 0,0 mm 0,0 km/h O 277 0 min 0 min 0,000 mm 0,0 UV-I 0 W/m 5,9 C 6,6 C 0,0 km/h 87,50 %
08/12/2021 05:52 6,6 C 95 % 1002,8 hPa 0,0 mm 0,0 km/h O 277 0 min 0 min 0,000 mm 0,0 UV-I 0 W/m 5,9 C 6,6 C 0,0 km/h 100,00 %
08/12/2021 05:51 6,6 C 95 % 1002,8 hPa 0,0 mm 0,0 km/h O 277 0 min 0 min 0,000 mm 0,0 UV-I 0 W/m 5,9 C 6,6 C 0,0 km/h 100,00 %
08/12/2021 05:50 6,6 C 95 % 1002,8 hPa 0,0 mm 0,0 km/h O 277 0 min 0 min 0,000 mm 0,0 UV-I 0 W/m 5,9 C 6,6 C 0,0 km/h 96,00 %
08/12/2021 05:49 6,5 C 95 % 1002,8 hPa 0,0 mm 0,0 km/h O 277 0 min 0 min 0,000 mm 0,0 UV-I 0 W/m 5,8 C 6,5 C 0,0 km/h 96,30 %
08/12/2021 05:48 6,6 C 95 % 1002,7 hPa 0,0 mm 0,0 km/h O 277 0 min 0 min 0,000 mm 0,0 UV-I 0 W/m 5,9 C 6,6 C 0,0 km/h 100,00 %
08/12/2021 05:47 6,6 C 95 % 1002,7 hPa 0,0 mm 0,0 km/h O 277 0 min 0 min 0,000 mm 0,0 UV-I 0 W/m 5,9 C 6,6 C 0,0 km/h 100,00 %
08/12/2021 05:46 6,6 C 95 % 1002,8 hPa 0,0 mm 0,0 km/h O 277 0 min 0 min 0,000 mm 0,0 UV-I 0 W/m 5,9 C 6,6 C 0,0 km/h 100,00 %
08/12/2021 05:45 6,6 C 95 % 1002,7 hPa 0,0 mm 0,0 km/h O 277 0 min 0 min 0,000 mm 0,0 UV-I 0 W/m 5,9 C 6,6 C 0,0 km/h 100,00 %
08/12/2021 05:44 6,6 C 95 % 1002,8 hPa 0,0 mm 0,0 km/h O 277 0 min 0 min 0,000 mm 0,0 UV-I 0 W/m 5,9 C 6,6 C 0,0 km/h 100,00 %
08/12/2021 05:43 6,6 C 94 % 1002,7 hPa 0,0 mm 0,0 km/h O 277 0 min 0 min 0,000 mm 0,0 UV-I 0 W/m 5,7 C 6,6 C 0,0 km/h 95,83 %
08/12/2021 05:42 6,6 C 94 % 1002,8 hPa 0,0 mm 0,0 km/h O 277 0 min 0 min 0,000 mm 0,0 UV-I 0 W/m 5,7 C 6,6 C 0,0 km/h 100,00 %
08/12/2021 05:41 6,6 C 94 % 1002,8 hPa 0,0 mm 0,0 km/h O 277 0 min 0 min 0,000 mm 0,0 UV-I 0 W/m 5,7 C 6,6 C 0,0 km/h 100,00 %
08/12/2021 05:40 6,6 C 94 % 1002,7 hPa 0,0 mm 0,0 km/h O 277 0 min 0 min 0,000 mm 0,0 UV-I 0 W/m 5,7 C 6,6 C 0,0 km/h 100,00 %
08/12/2021 05:39 6,6 C 94 % 1002,7 hPa 0,0 mm 0,0 km/h O 277 0 min 0 min 0,000 mm 0,0 UV-I 0 W/m 5,7 C 6,6 C 0,0 km/h 100,00 %
08/12/2021 05:38 6,6 C 94 % 1002,6 hPa 0,0 mm 0,0 km/h O 277 0 min 0 min 0,000 mm 0,0 UV-I 0 W/m 5,7 C 6,6 C 0,0 km/h 100,00 %
08/12/2021 05:37 6,6 C 94 % 1002,6 hPa 0,0 mm 0,0 km/h O 277 0 min 0 min 0,000 mm 0,0 UV-I 0 W/m 5,7 C 6,6 C 0,0 km/h 95,83 %
08/12/2021 05:36 6,6 C 94 % 1002,6 hPa 0,0 mm 0,0 km/h O 277 0 min 0 min 0,000 mm 0,0 UV-I 0 W/m 5,7 C 6,6 C 0,0 km/h 100,00 %
08/12/2021 05:35 6,6 C 94 % 1002,6 hPa 0,0 mm 0,2 km/h O 277 0 min 0 min 0,000 mm 0,0 UV-I 0 W/m 5,7 C 6,6 C 1,8 km/h 100,00 %
08/12/2021 05:34 6,6 C 94 % 1002,6 hPa 0,0 mm 0,5 km/h O 277 0 min 0 min 0,000 mm 0,0 UV-I 0 W/m 5,7 C 6,6 C 1,8 km/h 100,00 %
08/12/2021 05:33 6,6 C 94 % 1002,7 hPa 0,0 mm 0,0 km/h O 277 0 min 0 min 0,000 mm 0,0 UV-I 0 W/m 5,7 C 6,6 C 0,0 km/h 100,00 %
08/12/2021 05:32 6,6 C 94 % 1002,7 hPa 0,0 mm 0,1 km/h O 277 0 min 0 min 0,000 mm 0,0 UV-I 0 W/m 5,7 C 6,6 C 1,8 km/h 97,71 %
08/12/2021 05:31 6,6 C 95 % 1002,7 hPa 0,0 mm 0,0 km/h O 277 0 min 0 min 0,000 mm 0,0 UV-I 0 W/m 5,9 C 6,6 C 0,0 km/h 95,83 %
08/12/2021 05:30 6,6 C 95 % 1002,7 hPa 0,0 mm 0,0 km/h O 277 0 min 0 min 0,000 mm 0,0 UV-I 0 W/m 5,9 C 6,6 C 0,0 km/h 100,00 %
08/12/2021 05:29 6,6 C 95 % 1002,7 hPa 0,0 mm 0,0 km/h O 277 0 min 0 min 0,000 mm 0,0 UV-I 0 W/m 5,9 C 6,6 C 0,0 km/h 100,00 %
08/12/2021 05:28 6,6 C 95 % 1002,6 hPa 0,0 mm 0,3 km/h O 277 0 min 0 min 0,000 mm 0,0 UV-I 0 W/m 5,9 C 6,6 C 1,8 km/h 100,00 %
08/12/2021 05:27 6,6 C 95 % 1002,6 hPa 0,0 mm 1,4 km/h O 277 0 min 0 min 0,000 mm 0,0 UV-I 0 W/m 5,9 C 6,6 C 3,5 km/h 96,15 %
08/12/2021 05:26 6,6 C 95 % 1002,6 hPa 0,0 mm 0,0 km/h O 277 0 min 0 min 0,000 mm 0,0 UV-I 0 W/m 5,9 C 6,6 C 0,0 km/h 96,00 %
08/12/2021 05:25 6,6 C 95 % 1002,6 hPa 0,0 mm 0,0 km/h O 277 0 min 0 min 0,000 mm 0,0 UV-I 0 W/m 5,9 C 6,6 C 0,0 km/h 95,83 %
08/12/2021 05:24 6,6 C 95 % 1002,6 hPa 0,0 mm 0,0 km/h O 277 0 min 0 min 0,000 mm 0,0 UV-I 0 W/m 5,9 C 6,6 C 0,0 km/h 100,00 %
08/12/2021 05:23 6,6 C 95 % 1002,6 hPa 0,0 mm 0,0 km/h O 277 0 min 0 min 0,000 mm 0,0 UV-I 0 W/m 5,9 C 6,6 C 0,0 km/h 95,83 %
08/12/2021 05:22 6,6 C 95 % 1002,6 hPa 0,0 mm 0,0 km/h O 277 0 min 0 min 0,000 mm 0,0 UV-I 0 W/m 5,9 C 6,6 C 0,0 km/h 96,00 %
08/12/2021 05:21 6,6 C 95 % 1002,6 hPa 0,0 mm 0,0 km/h O 277 0 min 0 min 0,000 mm 0,0 UV-I 0 W/m 5,9 C 6,6 C 0,0 km/h 96,00 %
08/12/2021 05:20 6,6 C 95 % 1002,6 hPa 0,0 mm 0,0 km/h O 277 0 min 0 min 0,000 mm 0,0 UV-I 0 W/m 5,9 C 6,6 C 0,0 km/h 95,83 %
08/12/2021 05:19 6,6 C 95 % 1002,7 hPa 0,0 mm 0,0 km/h O 277 0 min 0 min 0,000 mm 0,0 UV-I 0 W/m 5,9 C 6,6 C 0,0 km/h 100,00 %
08/12/2021 05:18 6,6 C 95 % 1002,8 hPa 0,0 mm 0,0 km/h O 277 0 min 0 min 0,000 mm 0,0 UV-I 0 W/m 5,9 C 6,6 C 0,0 km/h 100,00 %
08/12/2021 05:17 6,6 C 95 % 1002,8 hPa 0,0 mm 0,0 km/h O 277 0 min 0 min 0,000 mm 0,0 UV-I 0 W/m 5,9 C 6,6 C 0,0 km/h 92,00 %
08/12/2021 05:16 6,6 C 95 % 1002,8 hPa 0,0 mm 0,0 km/h O 277 0 min 0 min 0,000 mm 0,0 UV-I 0 W/m 5,9 C 6,6 C 0,0 km/h 100,00 %
08/12/2021 05:15 6,6 C 95 % 1002,9 hPa 0,0 mm 0,0 km/h O 277 0 min 0 min 0,000 mm 0,0 UV-I 0 W/m 5,9 C 6,6 C 0,0 km/h 100,00 %
08/12/2021 05:14 6,6 C 95 % 1002,9 hPa 0,0 mm 0,0 km/h O 277 0 min 0 min 0,000 mm 0,0 UV-I 0 W/m 5,9 C 6,6 C 0,0 km/h 100,00 %
08/12/2021 05:13 6,6 C 95 % 1002,9 hPa 0,0 mm 0,0 km/h O 277 0 min 0 min 0,000 mm 0,0 UV-I 0 W/m 5,9 C 6,6 C 0,0 km/h 91,67 %
08/12/2021 05:12 6,7 C 95 % 1002,9 hPa 0,0 mm 0,0 km/h O 277 0 min 0 min 0,000 mm 0,0 UV-I 0 W/m 6,0 C 6,7 C 0,0 km/h 100,00 %
08/12/2021 05:11 6,7 C 95 % 1002,9 hPa 0,0 mm 0,0 km/h O 277 0 min 0 min 0,000 mm 0,0 UV-I 0 W/m 6,0 C 6,7 C 0,0 km/h 95,83 %
08/12/2021 05:10 6,7 C 95 % 1002,9 hPa 0,0 mm 0,0 km/h O 277 0 min 0 min 0,000 mm 0,0 UV-I 0 W/m 6,0 C 6,7 C 0,0 km/h 100,00 %
08/12/2021 05:09 6,7 C 95 % 1002,9 hPa 0,0 mm 0,0 km/h O 277 0 min 0 min 0,000 mm 0,0 UV-I 0 W/m 6,0 C 6,7 C 0,0 km/h 100,00 %
08/12/2021 05:08 6,7 C 94 % 1003,0 hPa 0,0 mm 0,0 km/h O 277 0 min 0 min 0,000 mm 0,0 UV-I 0 W/m 5,8 C 6,7 C 0,0 km/h 91,30 %
08/12/2021 05:07 6,7 C 94 % 1003,0 hPa 0,0 mm 0,0 km/h O 277 0 min 0 min 0,000 mm 0,0 UV-I 0 W/m 5,8 C 6,7 C 0,0 km/h 95,12 %
08/12/2021 05:06 6,7 C 94 % 1003,0 hPa 0,0 mm 0,0 km/h O 277 0 min 0 min 0,000 mm 0,0 UV-I 0 W/m 5,8 C 6,7 C 0,0 km/h 97,76 %
08/12/2021 05:05 6,7 C 94 % 1003,2 hPa 0,0 mm 0,0 km/h O 277 0 min 0 min 0,000 mm 0,0 UV-I 0 W/m 5,8 C 6,7 C 0,0 km/h 96,15 %
08/12/2021 05:04 6,7 C 94 % 1003,1 hPa 0,0 mm 0,0 km/h O 277 0 min 0 min 0,000 mm 0,0 UV-I 0 W/m 5,8 C 6,7 C 0,0 km/h 100,00 %
08/12/2021 05:03 6,7 C 94 % 1003,2 hPa 0,0 mm 0,0 km/h O 277 0 min 0 min 0,000 mm 0,0 UV-I 0 W/m 5,8 C 6,7 C 0,0 km/h 96,30 %
08/12/2021 05:02 6,7 C 94 % 1003,2 hPa 0,0 mm 0,0 km/h O 277 0 min 0 min 0,000 mm 0,0 UV-I 0 W/m 5,8 C 6,7 C 0,0 km/h 100,00 %
08/12/2021 05:01 6,7 C 94 % 1003,1 hPa 0,0 mm 0,0 km/h O 277 0 min 0 min 0,000 mm 0,0 UV-I 0 W/m 5,8 C 6,7 C 0,0 km/h 92,59 %
08/12/2021 05:00 6,7 C 94 % 1003,2 hPa 0,0 mm 0,0 km/h O 277 0 min 0 min 0,000 mm 0,0 UV-I 0 W/m 5,8 C 6,7 C 0,0 km/h 94,12 %
08/12/2021 04:59 6,7 C 94 % 1003,1 hPa 0,0 mm 0,0 km/h O 277 0 min 0 min 0,000 mm 0,0 UV-I 0 W/m 5,8 C 6,7 C 0,0 km/h 91,67 %
08/12/2021 04:58 6,7 C 94 % 1003,1 hPa 0,0 mm 0,1 km/h O 277 0 min 0 min 0,000 mm 0,0 UV-I 0 W/m 5,8 C 6,7 C 1,8 km/h 100,00 %
08/12/2021 04:57 6,7 C 94 % 1003,2 hPa 0,0 mm 1,7 km/h O 277 0 min 0 min 0,000 mm 0,0 UV-I 0 W/m 5,8 C 6,7 C 5,3 km/h 95,83 %
08/12/2021 04:56 6,7 C 94 % 1003,2 hPa 0,0 mm 3,6 km/h O 277 0 min 0 min 0,000 mm 0,0 UV-I 0 W/m 5,8 C 6,7 C 5,3 km/h 91,67 %
08/12/2021 04:55 6,7 C 94 % 1003,2 hPa 0,0 mm 0,8 km/h O 277 0 min 0 min 0,000 mm 0,0 UV-I 0 W/m 5,8 C 6,7 C 3,5 km/h 100,00 %
08/12/2021 04:54 6,7 C 94 % 1003,2 hPa 0,0 mm 0,9 km/h O 277 0 min 0 min 0,000 mm 0,0 UV-I 0 W/m 5,8 C 6,7 C 1,8 km/h 91,67 %
08/12/2021 04:53 6,7 C 94 % 1003,2 hPa 0,0 mm 1,5 km/h O 277 0 min 0 min 0,000 mm 0,0 UV-I 0 W/m 5,8 C 6,7 C 3,5 km/h 100,00 %
08/12/2021 04:52 6,8 C 94 % 1003,2 hPa 0,0 mm 0,4 km/h O 277 0 min 0 min 0,000 mm 0,0 UV-I 0 W/m 5,9 C 6,8 C 3,5 km/h 96,30 %
08/12/2021 04:51 6,8 C 94 % 1003,2 hPa 0,0 mm 1,0 km/h O 277 0 min 0 min 0,000 mm 0,0 UV-I 0 W/m 5,9 C 6,8 C 3,5 km/h 100,00 %
08/12/2021 04:50 6,8 C 94 % 1003,3 hPa 0,0 mm 0,6 km/h O 277 0 min 0 min 0,000 mm 0,0 UV-I 0 W/m 5,9 C 6,8 C 3,5 km/h 96,15 %
08/12/2021 04:49 6,8 C 94 % 1003,3 hPa 0,0 mm 1,0 km/h O 277 0 min 0 min 0,000 mm 0,0 UV-I 0 W/m 5,9 C 6,8 C 3,5 km/h 91,67 %
08/12/2021 04:48 6,8 C 94 % 1003,4 hPa 0,0 mm 1,7 km/h O 277 0 min 0 min 0,000 mm 0,0 UV-I 0 W/m 5,9 C 6,8 C 3,5 km/h 90,00 %
08/12/2021 04:47 6,8 C 94 % 1003,4 hPa 0,0 mm 4,0 km/h O 277 0 min 0 min 0,000 mm 0,0 UV-I 0 W/m 5,9 C 6,8 C 5,3 km/h 93,33 %
08/12/2021 04:46 6,8 C 94 % 1003,5 hPa 0,0 mm 2,9 km/h O 277 0 min 0 min 0,000 mm 0,0 UV-I 0 W/m 5,9 C 6,8 C 5,3 km/h 96,67 %
08/12/2021 04:45 6,8 C 94 % 1003,5 hPa 0,0 mm 5,4 km/h O 276 0 min 0 min 0,000 mm 0,0 UV-I 0 W/m 5,9 C 6,8 C 7,1 km/h 93,33 %
08/12/2021 04:44 6,8 C 94 % 1003,5 hPa 0,0 mm 5,7 km/h O 276 0 min 0 min 0,000 mm 0,0 UV-I 0 W/m 5,9 C 6,8 C 10,6 km/h 100,00 %
08/12/2021 04:43 6,8 C 94 % 1003,4 hPa 0,0 mm 4,4 km/h O-NO 284 0 min 0 min 0,000 mm 0,0 UV-I 0 W/m 5,9 C 6,8 C 5,3 km/h 91,30 %
08/12/2021 04:42 6,8 C 94 % 1003,4 hPa 0,0 mm 4,3 km/h O-NO 284 0 min 0 min 0,000 mm 0,0 UV-I 0 W/m 5,9 C 6,8 C 5,3 km/h 96,30 %
08/12/2021 04:41 6,8 C 94 % 1003,4 hPa 0,0 mm 3,9 km/h O-NO 284 0 min 0 min 0,000 mm 0,0 UV-I 0 W/m 5,9 C 6,8 C 5,3 km/h 96,15 %
08/12/2021 04:40 6,8 C 94 % 1003,4 hPa 0,0 mm 3,2 km/h O-NO 284 0 min 0 min 0,000 mm 0,0 UV-I 0 W/m 5,9 C 6,8 C 7,1 km/h 92,86 %
08/12/2021 04:39 6,7 C 94 % 1003,4 hPa 0,0 mm 1,8 km/h O-NO 284 0 min 0 min 0,000 mm 0,0 UV-I 0 W/m 5,8 C 6,7 C 3,5 km/h 95,83 %
08/12/2021 04:38 6,8 C 94 % 1003,3 hPa 0,0 mm 0,8 km/h O-NO 284 0 min 0 min 0,000 mm 0,0 UV-I 0 W/m 5,9 C 6,8 C 1,8 km/h 100,00 %
08/12/2021 04:37 6,7 C 94 % 1003,4 hPa 0,0 mm 1,6 km/h O-NO 284 0 min 0 min 0,000 mm 0,0 UV-I 0 W/m 5,8 C 6,7 C 3,5 km/h 95,83 %
08/12/2021 04:36 6,7 C 94 % 1003,4 hPa 0,0 mm 0,0 km/h O-NO 284 0 min 0 min 0,000 mm 0,0 UV-I 0 W/m 5,8 C 6,7 C 0,0 km/h 96,00 %
08/12/2021 04:35 6,7 C 94 % 1003,3 hPa 0,0 mm 0,2 km/h O-NO 284 0 min 0 min 0,000 mm 0,0 UV-I 0 W/m 5,8 C 6,7 C 1,8 km/h 95,83 %
08/12/2021 04:34 6,7 C 94 % 1003,3 hPa 0,0 mm 1,2 km/h O-NO 284 0 min 0 min 0,000 mm 0,0 UV-I 0 W/m 5,8 C 6,7 C 3,5 km/h 96,00 %
08/12/2021 04:33 6,7 C 94 % 1003,3 hPa 0,2 mm 2,5 km/h O-NO 284 0 min 0 min 0,000 mm 0,0 UV-I 0 W/m 5,8 C 6,7 C 3,5 km/h 100,00 %
08/12/2021 04:32 6,7 C 94 % 1003,2 hPa 0,0 mm 1,4 km/h O-NO 284 0 min 0 min 0,000 mm 0,0 UV-I 0 W/m 5,8 C 6,7 C 3,5 km/h 91,67 %
08/12/2021 04:31 6,7 C 94 % 1003,3 hPa 0,0 mm 0,2 km/h O-NO 284 0 min 0 min 0,000 mm 0,0 UV-I 0 W/m 5,8 C 6,7 C 1,8 km/h 96,15 %
08/12/2021 04:30 6,7 C 94 % 1003,2 hPa 0,0 mm 0,0 km/h O-NO 284 0 min 0 min 0,000 mm 0,0 UV-I 0 W/m 5,8 C 6,7 C 0,0 km/h 100,00 %
08/12/2021 04:29 6,7 C 94 % 1003,2 hPa 0,0 mm 0,0 km/h O-NO 284 0 min 0 min 0,000 mm 0,0 UV-I 0 W/m 5,8 C 6,7 C 0,0 km/h 96,00 %
08/12/2021 04:28 6,7 C 94 % 1003,2 hPa 0,0 mm 0,0 km/h O-NO 284 0 min 0 min 0,000 mm 0,0 UV-I 0 W/m 5,8 C 6,7 C 0,0 km/h 100,00 %
08/12/2021 04:27 6,7 C 94 % 1003,2 hPa 0,0 mm 0,0 km/h O-NO 284 0 min 0 min 0,000 mm 0,0 UV-I 0 W/m 5,8 C 6,7 C 0,0 km/h 93,33 %
08/12/2021 04:26 6,7 C 94 % 1003,2 hPa 0,0 mm 0,0 km/h O-NO 284 0 min 0 min 0,000 mm 0,0 UV-I 0 W/m 5,8 C 6,7 C 0,0 km/h 100,00 %
08/12/2021 04:25 6,7 C 94 % 1003,3 hPa 0,0 mm 0,0 km/h O-NO 284 0 min 0 min 0,000 mm 0,0 UV-I 0 W/m 5,8 C 6,7 C 0,0 km/h 100,00 %
08/12/2021 04:24 6,7 C 94 % 1003,3 hPa 0,0 mm 0,0 km/h O-NO 284 0 min 0 min 0,000 mm 0,0 UV-I 0 W/m 5,8 C 6,7 C 0,0 km/h 100,00 %
08/12/2021 04:23 6,7 C 94 % 1003,2 hPa 0,0 mm 0,0 km/h O-NO 284 0 min 0 min 0,000 mm 0,0 UV-I 0 W/m 5,8 C 6,7 C 0,0 km/h 100,00 %
08/12/2021 04:22 6,7 C 94 % 1003,2 hPa 0,0 mm 0,0 km/h O-NO 284 0 min 0 min 0,000 mm 0,0 UV-I 0 W/m 5,8 C 6,7 C 0,0 km/h 100,00 %
08/12/2021 04:21 6,7 C 94 % 1003,3 hPa 0,0 mm 0,0 km/h O-NO 284 0 min 0 min 0,000 mm 0,0 UV-I 0 W/m 5,8 C 6,7 C 0,0 km/h 100,00 %
08/12/2021 04:20 6,7 C 94 % 1003,3 hPa 0,0 mm 0,0 km/h O-NO 284 0 min 0 min 0,000 mm 0,0 UV-I 0 W/m 5,8 C 6,7 C 0,0 km/h 100,00 %
08/12/2021 04:19 6,7 C 94 % 1003,4 hPa 0,0 mm 0,0 km/h O-NO 284 0 min 0 min 0,000 mm 0,0 UV-I 0 W/m 5,8 C 6,7 C 0,0 km/h 100,00 %
08/12/2021 04:18 6,7 C 94 % 1003,5 hPa 0,0 mm 0,0 km/h O-NO 284 0 min 0 min 0,000 mm 0,0 UV-I 0 W/m 5,8 C 6,7 C 0,0 km/h 100,00 %
08/12/2021 04:17 6,7 C 94 % 1003,5 hPa 0,2 mm 0,0 km/h O-NO 284 0 min 0 min 0,000 mm 0,0 UV-I 0 W/m 5,8 C 6,7 C 0,0 km/h 100,00 %
08/12/2021 04:16 6,7 C 94 % 1003,6 hPa 0,0 mm 0,0 km/h O-NO 284 0 min 0 min 0,000 mm 0,0 UV-I 0 W/m 5,8 C 6,7 C 0,0 km/h 92,31 %
08/12/2021 04:15 6,7 C 94 % 1003,6 hPa 0,0 mm 0,0 km/h O-NO 284 0 min 0 min 0,000 mm 0,0 UV-I 0 W/m 5,8 C 6,7 C 0,0 km/h 100,00 %
08/12/2021 04:14 6,7 C 94 % 1003,7 hPa 0,0 mm 0,0 km/h O-NO 284 0 min 0 min 0,000 mm 0,0 UV-I 0 W/m 5,8 C 6,7 C 0,0 km/h 100,00 %
08/12/2021 04:13 6,7 C 94 % 1003,7 hPa 0,0 mm 0,5 km/h O-NO 284 0 min 0 min 0,000 mm 0,0 UV-I 0 W/m 5,8 C 6,7 C 1,8 km/h 100,00 %
08/12/2021 04:12 6,7 C 94 % 1003,7 hPa 0,0 mm 0,0 km/h O-NO 284 0 min 0 min 0,000 mm 0,0 UV-I 0 W/m 5,8 C 6,7 C 0,0 km/h 100,00 %
08/12/2021 04:11 6,7 C 94 % 1003,7 hPa 0,0 mm 0,0 km/h O-NO 284 0 min 0 min 0,000 mm 0,0 UV-I 0 W/m 5,8 C 6,7 C 0,0 km/h 95,83 %
08/12/2021 04:10 6,7 C 94 % 1003,6 hPa 0,0 mm 0,0 km/h O-NO 284 0 min 0 min 0,000 mm 0,0 UV-I 0 W/m 5,8 C 6,7 C 0,0 km/h 96,77 %
08/12/2021 04:09 6,7 C 94 % 1003,6 hPa 0,0 mm 0,0 km/h O-NO 284 0 min 0 min 0,000 mm 0,0 UV-I 0 W/m 5,8 C 6,7 C 0,0 km/h 100,00 %
08/12/2021 04:08 6,7 C 94 % 1003,6 hPa 0,0 mm 0,4 km/h O-NO 284 0 min 0 min 0,000 mm 0,0 UV-I 0 W/m 5,8 C 6,7 C 1,8 km/h 95,83 %
08/12/2021 04:07 6,7 C 94 % 1003,7 hPa 0,0 mm 0,0 km/h O-NO 284 0 min 0 min 0,000 mm 0,0 UV-I 0 W/m 5,8 C 6,7 C 0,0 km/h 100,00 %
08/12/2021 04:06 6,7 C 94 % 1003,7 hPa 0,2 mm 0,0 km/h O-NO 284 0 min 0 min 0,000 mm 0,0 UV-I 0 W/m 5,8 C 6,7 C 0,0 km/h 91,67 %
08/12/2021 04:05 6,7 C 94 % 1003,8 hPa 0,0 mm 0,0 km/h O-NO 284 0 min 0 min 0,000 mm 0,0 UV-I 0 W/m 5,8 C 6,7 C 0,0 km/h 100,00 %
08/12/2021 04:04 6,7 C 94 % 1003,8 hPa 0,0 mm 0,0 km/h O-NO 284 0 min 0 min 0,000 mm 0,0 UV-I 0 W/m 5,8 C 6,7 C 0,0 km/h 96,67 %
08/12/2021 04:03 6,7 C 94 % 1003,8 hPa 0,0 mm 0,0 km/h O-NO 284 0 min 0 min 0,000 mm 0,0 UV-I 0 W/m 5,8 C 6,7 C 0,0 km/h 100,00 %
08/12/2021 04:02 6,7 C 94 % 1003,9 hPa 0,0 mm 0,0 km/h O-NO 284 0 min 0 min 0,000 mm 0,0 UV-I 0 W/m 5,8 C 6,7 C 0,0 km/h 100,00 %
08/12/2021 04:01 6,8 C 94 % 1003,9 hPa 0,0 mm 0,0 km/h O-NO 284 0 min 0 min 0,000 mm 0,0 UV-I 0 W/m 5,9 C 6,8 C 0,0 km/h 100,00 %
08/12/2021 04:00 6,8 C 94 % 1003,9 hPa 0,0 mm 0,0 km/h O-NO 284 0 min 0 min 0,000 mm 0,0 UV-I 0 W/m 5,9 C 6,8 C 0,0 km/h 100,00 %
08/12/2021 03:59 6,8 C 94 % 1003,9 hPa 0,0 mm 0,0 km/h O-NO 284 0 min 0 min 0,000 mm 0,0 UV-I 0 W/m 5,9 C 6,8 C 0,0 km/h 100,00 %
08/12/2021 03:58 6,8 C 94 % 1004,0 hPa 0,2 mm 0,0 km/h O-NO 284 0 min 0 min 0,000 mm 0,0 UV-I 0 W/m 5,9 C 6,8 C 0,0 km/h 100,00 %
08/12/2021 03:57 6,8 C 94 % 1004,0 hPa 0,0 mm 0,0 km/h O-NO 284 0 min 0 min 0,000 mm 0,0 UV-I 0 W/m 5,9 C 6,8 C 0,0 km/h 100,00 %
08/12/2021 03:56 6,8 C 94 % 1004,0 hPa 0,0 mm 0,0 km/h O-NO 284 0 min 0 min 0,000 mm 0,0 UV-I 0 W/m 5,9 C 6,8 C 0,0 km/h 100,00 %
08/12/2021 03:55 6,8 C 94 % 1004,1 hPa 0,0 mm 0,0 km/h O-NO 284 0 min 0 min 0,000 mm 0,0 UV-I 0 W/m 5,9 C 6,8 C 0,0 km/h 100,00 %
08/12/2021 03:54 6,8 C 94 % 1004,1 hPa 0,0 mm 0,0 km/h O-NO 284 0 min 0 min 0,000 mm 0,0 UV-I 0 W/m 5,9 C 6,8 C 0,0 km/h 100,00 %
08/12/2021 03:53 6,8 C 94 % 1004,2 hPa 0,2 mm 1,3 km/h O-NO 284 0 min 0 min 0,000 mm 0,0 UV-I 0 W/m 5,9 C 6,8 C 1,8 km/h 100,00 %
08/12/2021 03:52 6,8 C 94 % 1004,3 hPa 0,0 mm 0,8 km/h O-NO 284 0 min 0 min 0,000 mm 0,0 UV-I 0 W/m 5,9 C 6,8 C 1,8 km/h 95,83 %
08/12/2021 03:51 6,8 C 94 % 1004,3 hPa 0,0 mm 0,8 km/h O-NO 284 0 min 0 min 0,000 mm 0,0 UV-I 0 W/m 5,9 C 6,8 C 1,8 km/h 96,30 %
08/12/2021 03:50 6,8 C 94 % 1004,4 hPa 0,0 mm 1,5 km/h O-NO 284 0 min 0 min 0,000 mm 0,0 UV-I 0 W/m 5,9 C 6,8 C 3,5 km/h 100,00 %
08/12/2021 03:49 6,8 C 94 % 1004,4 hPa 0,0 mm 3,9 km/h O-NO 284 0 min 0 min 0,000 mm 0,0 UV-I 0 W/m 5,9 C 6,8 C 7,1 km/h 100,00 %
08/12/2021 03:48 6,8 C 94 % 1004,4 hPa 0,0 mm 3,7 km/h O-NO 284 0 min 0 min 0,000 mm 0,0 UV-I 0 W/m 5,9 C 6,8 C 7,1 km/h 100,00 %
08/12/2021 03:47 6,8 C 94 % 1004,5 hPa 0,2 mm 4,3 km/h O-NO 284 0 min 0 min 0,000 mm 0,0 UV-I 0 W/m 5,9 C 6,8 C 7,1 km/h 100,00 %
08/12/2021 03:46 6,8 C 94 % 1004,5 hPa 0,0 mm 4,2 km/h O-NO 284 0 min 0 min 0,000 mm 0,0 UV-I 0 W/m 5,9 C 6,8 C 7,1 km/h 100,00 %
08/12/2021 03:45 6,8 C 94 % 1004,5 hPa 0,0 mm 2,5 km/h O-NO 284 0 min 0 min 0,000 mm 0,0 UV-I 0 W/m 5,9 C 6,8 C 3,5 km/h 100,00 %
08/12/2021 03:44 6,8 C 94 % 1004,5 hPa 0,0 mm 3,6 km/h O-NO 284 0 min 0 min 0,000 mm 0,0 UV-I 0 W/m 5,9 C 6,8 C 7,1 km/h 100,00 %
08/12/2021 03:43 6,8 C 94 % 1004,4 hPa 0,2 mm 4,8 km/h O-NO 285 0 min 0 min 0,000 mm 0,0 UV-I 0 W/m 5,9 C 6,8 C 7,1 km/h 100,00 %
08/12/2021 03:42 6,8 C 94 % 1004,5 hPa 0,0 mm 2,1 km/h O-NO 289 0 min 0 min 0,000 mm 0,0 UV-I 0 W/m 5,9 C 6,8 C 3,5 km/h 100,00 %
08/12/2021 03:41 6,8 C 94 % 1004,4 hPa 0,0 mm 0,4 km/h O-NO 289 0 min 0 min 0,000 mm 0,0 UV-I 0 W/m 5,9 C 6,8 C 1,8 km/h 100,00 %
08/12/2021 03:40 6,8 C 94 % 1004,5 hPa 0,0 mm 0,5 km/h O-NO 289 0 min 0 min 0,000 mm 0,0 UV-I 0 W/m 5,9 C 6,8 C 1,8 km/h 95,83 %
08/12/2021 03:39 6,8 C 94 % 1004,4 hPa 0,2 mm 0,2 km/h O-NO 289 0 min 0 min 0,000 mm 0,0 UV-I 0 W/m 5,9 C 6,8 C 1,8 km/h 100,00 %
08/12/2021 03:38 6,8 C 94 % 1004,5 hPa 0,0 mm 1,5 km/h O-NO 289 0 min 0 min 0,000 mm 0,0 UV-I 0 W/m 5,9 C 6,8 C 3,5 km/h 100,00 %
08/12/2021 03:37 6,8 C 94 % 1004,4 hPa 0,0 mm 0,1 km/h O-NO 289 0 min 0 min 0,000 mm 0,0 UV-I 0 W/m 5,9 C 6,8 C 1,8 km/h 100,00 %
08/12/2021 03:36 6,8 C 94 % 1004,5 hPa 0,0 mm 2,2 km/h O-NO 289 0 min 0 min 0,000 mm 0,0 UV-I 0 W/m 5,9 C 6,8 C 3,5 km/h 95,83 %
08/12/2021 03:35 6,8 C 94 % 1004,5 hPa 0,0 mm 2,5 km/h O-NO 289 0 min 0 min 0,000 mm 0,0 UV-I 0 W/m 5,9 C 6,8 C 5,3 km/h 100,00 %
08/12/2021 03:34 6,8 C 94 % 1004,5 hPa 0,2 mm 0,4 km/h O-NO 289 0 min 0 min 0,000 mm 0,0 UV-I 0 W/m 5,9 C 6,8 C 1,8 km/h 95,83 %
08/12/2021 03:33 6,9 C 94 % 1004,6 hPa 0,0 mm 0,3 km/h O-NO 289 0 min 0 min 0,000 mm 0,0 UV-I 0 W/m 6,0 C 6,9 C 1,8 km/h 100,00 %
08/12/2021 03:32 6,9 C 94 % 1004,6 hPa 0,0 mm 0,5 km/h O-NO 289 0 min 0 min 0,000 mm 0,0 UV-I 0 W/m 6,0 C 6,9 C 1,8 km/h 91,67 %
08/12/2021 03:31 6,8 C 94 % 1004,6 hPa 0,0 mm 1,2 km/h O-NO 289 0 min 0 min 0,000 mm 0,0 UV-I 0 W/m 5,9 C 6,8 C 1,8 km/h 100,00 %
08/12/2021 03:30 6,9 C 94 % 1004,6 hPa 0,0 mm 0,7 km/h O-NO 289 0 min 0 min 0,000 mm 0,0 UV-I 0 W/m 6,0 C 6,9 C 1,8 km/h 96,43 %
08/12/2021 03:29 6,9 C 94 % 1004,6 hPa 0,2 mm 1,3 km/h O-NO 289 0 min 0 min 0,000 mm 0,0 UV-I 0 W/m 6,0 C 6,9 C 3,5 km/h 97,62 %
08/12/2021 03:28 6,9 C 94 % 1004,6 hPa 0,0 mm 1,3 km/h O-NO 289 0 min 0 min 0,000 mm 0,0 UV-I 0 W/m 6,0 C 6,9 C 3,5 km/h 97,79 %
08/12/2021 03:27 6,9 C 94 % 1004,6 hPa 0,0 mm 1,7 km/h O-NO 289 0 min 0 min 0,000 mm 0,0 UV-I 0 W/m 6,0 C 6,9 C 1,8 km/h 96,43 %
08/12/2021 03:26 6,9 C 94 % 1004,7 hPa 0,0 mm 2,5 km/h O-NO 289 0 min 0 min 0,000 mm 0,0 UV-I 0 W/m 6,0 C 6,9 C 3,5 km/h 100,00 %
08/12/2021 03:25 6,9 C 94 % 1004,6 hPa 0,0 mm 0,6 km/h O-NO 289 0 min 0 min 0,000 mm 0,0 UV-I 0 W/m 6,0 C 6,9 C 3,5 km/h 100,00 %
08/12/2021 03:24 6,9 C 94 % 1004,7 hPa 0,0 mm 0,0 km/h O-NO 289 0 min 0 min 0,000 mm 0,0 UV-I 0 W/m 6,0 C 6,9 C 0,0 km/h 100,00 %
08/12/2021 03:23 6,9 C 94 % 1004,7 hPa 0,0 mm 0,0 km/h O-NO 289 0 min 0 min 0,000 mm 0,0 UV-I 0 W/m 6,0 C 6,9 C 0,0 km/h 100,00 %
08/12/2021 03:22 6,9 C 94 % 1004,7 hPa 0,0 mm 0,8 km/h O-NO 289 0 min 0 min 0,000 mm 0,0 UV-I 0 W/m 6,0 C 6,9 C 3,5 km/h 100,00 %
08/12/2021 03:21 6,9 C 94 % 1004,8 hPa 0,0 mm 1,3 km/h O-NO 289 0 min 0 min 0,000 mm 0,0 UV-I 0 W/m 6,0 C 6,9 C 3,5 km/h 100,00 %
08/12/2021 03:20 6,9 C 94 % 1004,7 hPa 0,2 mm 0,1 km/h O-NO 289 0 min 0 min 0,000 mm 0,0 UV-I 0 W/m 6,0 C 6,9 C 1,8 km/h 100,00 %
08/12/2021 03:19 6,9 C 94 % 1004,7 hPa 0,0 mm 0,7 km/h O-NO 289 0 min 0 min 0,000 mm 0,0 UV-I 0 W/m 6,0 C 6,9 C 1,8 km/h 97,44 %
08/12/2021 03:18 6,9 C 94 % 1004,7 hPa 0,0 mm 1,2 km/h O-NO 289 0 min 0 min 0,000 mm 0,0 UV-I 0 W/m 6,0 C 6,9 C 3,5 km/h 97,72 %
08/12/2021 03:17 6,9 C 94 % 1004,7 hPa 0,0 mm 1,1 km/h O-NO 289 0 min 0 min 0,000 mm 0,0 UV-I 0 W/m 6,0 C 6,9 C 3,5 km/h 100,00 %
08/12/2021 03:16 6,9 C 94 % 1004,8 hPa 0,0 mm 0,6 km/h O-NO 289 0 min 0 min 0,000 mm 0,0 UV-I 0 W/m 6,0 C 6,9 C 1,8 km/h 100,00 %
08/12/2021 03:15 6,9 C 94 % 1004,8 hPa 0,0 mm 3,2 km/h O-NO 289 0 min 0 min 0,000 mm 0,0 UV-I 0 W/m 6,0 C 6,9 C 5,3 km/h 100,00 %
08/12/2021 03:14 6,9 C 94 % 1004,7 hPa 0,2 mm 2,6 km/h O-NO 289 0 min 0 min 0,000 mm 0,0 UV-I 0 W/m 6,0 C 6,9 C 7,1 km/h 100,00 %
08/12/2021 03:13 6,9 C 94 % 1004,8 hPa 0,0 mm 3,2 km/h NO 313 0 min 0 min 0,000 mm 0,0 UV-I 0 W/m 6,0 C 6,9 C 5,3 km/h 100,00 %
08/12/2021 03:12 6,9 C 94 % 1004,8 hPa 0,0 mm 1,3 km/h NO 314 0 min 0 min 0,000 mm 0,0 UV-I 0 W/m 6,0 C 6,9 C 1,8 km/h 100,00 %
08/12/2021 03:11 6,9 C 94 % 1004,7 hPa 0,0 mm 2,2 km/h NO 314 0 min 0 min 0,000 mm 0,0 UV-I 0 W/m 6,0 C 6,9 C 3,5 km/h 100,00 %
08/12/2021 03:10 6,9 C 94 % 1004,7 hPa 0,0 mm 3,1 km/h NO 311 0 min 0 min 0,000 mm 0,0 UV-I 0 W/m 6,0 C 6,9 C 5,3 km/h 100,00 %
08/12/2021 03:09 6,9 C 94 % 1004,7 hPa 0,0 mm 0,5 km/h NO 306 0 min 0 min 0,000 mm 0,0 UV-I 0 W/m 6,0 C 6,9 C 3,5 km/h 100,00 %
08/12/2021 03:08 6,9 C 94 % 1004,8 hPa 0,0 mm 2,3 km/h NO 306 0 min 0 min 0,000 mm 0,0 UV-I 0 W/m 6,0 C 6,9 C 5,3 km/h 100,00 %
08/12/2021 03:07 6,9 C 94 % 1004,8 hPa 0,0 mm 0,7 km/h NO 306 0 min 0 min 0,000 mm 0,0 UV-I 0 W/m 6,0 C 6,9 C 1,8 km/h 100,00 %
08/12/2021 03:06 6,9 C 94 % 1004,8 hPa 0,2 mm 2,1 km/h NO 306 0 min 0 min 0,000 mm 0,0 UV-I 0 W/m 6,0 C 6,9 C 3,5 km/h 100,00 %
08/12/2021 03:05 6,9 C 94 % 1004,8 hPa 0,0 mm 2,0 km/h NO 306 0 min 0 min 0,000 mm 0,0 UV-I 0 W/m 6,0 C 6,9 C 3,5 km/h 100,00 %
08/12/2021 03:04 7,0 C 94 % 1004,9 hPa 0,0 mm 1,4 km/h NO 306 0 min 0 min 0,000 mm 0,0 UV-I 0 W/m 6,1 C 7,0 C 3,5 km/h 96,30 %
08/12/2021 03:03 7,0 C 94 % 1004,8 hPa 0,0 mm 1,1 km/h NO 306 0 min 0 min 0,000 mm 0,0 UV-I 0 W/m 6,1 C 7,0 C 3,5 km/h 100,00 %
08/12/2021 03:02 7,0 C 94 % 1004,9 hPa 0,0 mm 1,7 km/h NO 306 0 min 0 min 0,000 mm 0,0 UV-I 0 W/m 6,1 C 7,0 C 3,5 km/h 97,54 %
08/12/2021 03:01 7,0 C 94 % 1004,9 hPa 0,0 mm 1,7 km/h NO 306 0 min 0 min 0,000 mm 0,0 UV-I 0 W/m 6,1 C 7,0 C 3,5 km/h 96,00 %
08/12/2021 03:00 7,0 C 94 % 1004,9 hPa 0,0 mm 3,6 km/h NO 306 0 min 0 min 0,000 mm 0,0 UV-I 0 W/m 6,1 C 7,0 C 5,3 km/h 95,83 %
08/12/2021 02:59 7,0 C 94 % 1005,0 hPa 0,0 mm 2,5 km/h NO 306 0 min 0 min 0,000 mm 0,0 UV-I 0 W/m 6,1 C 7,0 C 3,5 km/h 100,00 %
08/12/2021 02:58 7,0 C 94 % 1004,9 hPa 0,2 mm 2,8 km/h NO 306 0 min 0 min 0,000 mm 0,0 UV-I 0 W/m 6,1 C 7,0 C 5,3 km/h 95,83 %
08/12/2021 02:57 7,0 C 94 % 1004,9 hPa 0,0 mm 3,3 km/h NO 304 0 min 0 min 0,000 mm 0,0 UV-I 0 W/m 6,1 C 7,0 C 5,3 km/h 100,00 %
08/12/2021 02:56 7,0 C 94 % 1004,9 hPa 0,0 mm 2,3 km/h NO 304 0 min 0 min 0,000 mm 0,0 UV-I 0 W/m 6,1 C 7,0 C 5,3 km/h 96,00 %
08/12/2021 02:55 7,0 C 94 % 1004,9 hPa 0,0 mm 2,5 km/h NO 304 0 min 0 min 0,000 mm 0,0 UV-I 0 W/m 6,1 C 7,0 C 5,3 km/h 97,96 %
08/12/2021 02:53 7,0 C 94 % 1004,9 hPa 0,0 mm 2,3 km/h NO 304 0 min 0 min 0,000 mm 0,0 UV-I 0 W/m 6,1 C 7,0 C 5,3 km/h 95,83 %
08/12/2021 02:52 7,0 C 94 % 1004,9 hPa 0,0 mm 3,2 km/h NO 305 0 min 0 min 0,000 mm 0,0 UV-I 0 W/m 6,1 C 7,0 C 3,5 km/h 100,00 %
08/12/2021 02:51 7,1 C 94 % 1004,9 hPa 0,0 mm 3,8 km/h NO 305 0 min 0 min 0,000 mm 0,0 UV-I 0 W/m 6,2 C 7,1 C 7,1 km/h 96,00 %
08/12/2021 02:50 7,0 C 94 % 1004,9 hPa 0,0 mm 3,4 km/h O-NO 292 0 min 0 min 0,000 mm 0,0 UV-I 0 W/m 6,1 C 7,0 C 5,3 km/h 100,00 %
08/12/2021 02:49 7,1 C 94 % 1004,9 hPa 0,0 mm 0,8 km/h NO 322 0 min 0 min 0,000 mm 0,0 UV-I 0 W/m 6,2 C 7,1 C 1,8 km/h 100,00 %
08/12/2021 02:48 7,1 C 94 % 1005,0 hPa 0,0 mm 1,2 km/h NO 323 0 min 0 min 0,000 mm 0,0 UV-I 0 W/m 6,2 C 7,1 C 1,8 km/h 95,83 %
08/12/2021 02:47 7,1 C 94 % 1005,0 hPa 0,0 mm 0,0 km/h NO 323 0 min 0 min 0,000 mm 0,0 UV-I 0 W/m 6,2 C 7,1 C 0,0 km/h 100,00 %
08/12/2021 02:46 7,1 C 93 % 1005,0 hPa 0,0 mm 0,0 km/h NO 322 0 min 0 min 0,000 mm 0,0 UV-I 0 W/m 6,0 C 7,1 C 0,0 km/h 100,00 %
08/12/2021 02:45 7,1 C 93 % 1005,0 hPa 0,2 mm 0,0 km/h NO 322 0 min 0 min 0,000 mm 0,0 UV-I 0 W/m 6,0 C 7,1 C 0,0 km/h 100,00 %
08/12/2021 02:44 7,1 C 93 % 1005,1 hPa 0,0 mm 0,0 km/h NO 323 0 min 0 min 0,000 mm 0,0 UV-I 0 W/m 6,0 C 7,1 C 0,0 km/h 100,00 %
08/12/2021 02:43 7,1 C 93 % 1005,1 hPa 0,0 mm 0,0 km/h NO 323 0 min 0 min 0,000 mm 0,0 UV-I 0 W/m 6,0 C 7,1 C 0,0 km/h 95,83 %
08/12/2021 02:42 7,1 C 93 % 1005,1 hPa 0,0 mm 0,0 km/h NO 322 0 min 0 min 0,000 mm 0,0 UV-I 0 W/m 6,0 C 7,1 C 0,0 km/h 96,00 %
08/12/2021 02:41 7,1 C 94 % 1005,1 hPa 0,0 mm 0,0 km/h NO 322 0 min 0 min 0,000 mm 0,0 UV-I 0 W/m 6,2 C 7,1 C 0,0 km/h 92,86 %
08/12/2021 02:40 7,1 C 93 % 1005,2 hPa 0,0 mm 0,0 km/h NO 323 0 min 0 min 0,000 mm 0,0 UV-I 0 W/m 6,0 C 7,1 C 0,0 km/h 98,36 %
08/12/2021 02:38 7,1 C 93 % 1005,3 hPa 0,0 mm 0,0 km/h NO 323 0 min 0 min 0,000 mm 0,0 UV-I 0 W/m 6,0 C 7,1 C 0,0 km/h 95,65 %
08/12/2021 02:37 7,1 C 93 % 1005,3 hPa 0,0 mm 0,0 km/h NO 323 0 min 0 min 0,000 mm 0,0 UV-I 0 W/m 6,0 C 7,1 C 0,0 km/h 100,00 %
08/12/2021 02:36 7,1 C 93 % 1005,3 hPa 0,0 mm 0,0 km/h NO 323 0 min 0 min 0,000 mm 0,0 UV-I 0 W/m 6,0 C 7,1 C 0,0 km/h 95,83 %
08/12/2021 02:35 7,1 C 94 % 1005,3 hPa 0,0 mm 0,0 km/h NO 323 0 min 0 min 0,000 mm 0,0 UV-I 0 W/m 6,2 C 7,1 C 0,0 km/h 96,00 %
08/12/2021 02:34 7,1 C 93 % 1005,3 hPa 0,0 mm 0,0 km/h NO 323 0 min 0 min 0,000 mm 0,0 UV-I 0 W/m 6,0 C 7,1 C 0,0 km/h 95,83 %
08/12/2021 02:33 7,1 C 94 % 1005,2 hPa 0,0 mm 0,0 km/h NO 323 0 min 0 min 0,000 mm 0,0 UV-I 0 W/m 6,2 C 7,1 C 0,0 km/h 100,00 %
08/12/2021 02:32 7,1 C 94 % 1005,2 hPa 0,0 mm 0,0 km/h NO 323 0 min 0 min 0,000 mm 0,0 UV-I 0 W/m 6,2 C 7,1 C 0,0 km/h 95,83 %
08/12/2021 02:31 7,1 C 94 % 1005,1 hPa 0,0 mm 0,0 km/h NO 323 0 min 0 min 0,000 mm 0,0 UV-I 0 W/m 6,2 C 7,1 C 0,0 km/h 100,00 %
08/12/2021 02:30 7,1 C 94 % 1005,1 hPa 0,2 mm 0,0 km/h NO 323 0 min 0 min 0,000 mm 0,0 UV-I 0 W/m 6,2 C 7,1 C 0,0 km/h 91,67 %
08/12/2021 02:29 7,1 C 94 % 1005,1 hPa 0,0 mm 0,8 km/h NO 323 0 min 0 min 0,000 mm 0,0 UV-I 0 W/m 6,2 C 7,1 C 3,5 km/h 91,30 %
08/12/2021 02:28 7,1 C 93 % 1005,1 hPa 0,0 mm 1,5 km/h NO 323 0 min 0 min 0,000 mm 0,0 UV-I 0 W/m 6,0 C 7,1 C 1,8 km/h 96,67 %
08/12/2021 02:27 7,1 C 93 % 1005,0 hPa 0,0 mm 0,0 km/h NO 323 0 min 0 min 0,000 mm 0,0 UV-I 0 W/m 6,0 C 7,1 C 0,0 km/h 91,67 %
08/12/2021 02:26 7,1 C 93 % 1005,1 hPa 0,0 mm 0,2 km/h NO 323 0 min 0 min 0,000 mm 0,0 UV-I 0 W/m 6,0 C 7,1 C 1,8 km/h 100,00 %
08/12/2021 02:25 7,1 C 93 % 1005,0 hPa 0,0 mm 1,4 km/h NO 323 0 min 0 min 0,000 mm 0,0 UV-I 0 W/m 6,0 C 7,1 C 3,5 km/h 92,00 %
08/12/2021 02:24 7,1 C 93 % 1005,0 hPa 0,0 mm 0,4 km/h NO 323 0 min 0 min 0,000 mm 0,0 UV-I 0 W/m 6,0 C 7,1 C 1,8 km/h 100,00 %
08/12/2021 02:23 7,1 C 93 % 1005,0 hPa 0,0 mm 1,2 km/h NO 323 0 min 0 min 0,000 mm 0,0 UV-I 0 W/m 6,0 C 7,1 C 3,5 km/h 96,00 %
08/12/2021 02:22 7,1 C 93 % 1005,1 hPa 0,0 mm 0,3 km/h NO 323 0 min 0 min 0,000 mm 0,0 UV-I 0 W/m 6,0 C 7,1 C 1,8 km/h 92,59 %
08/12/2021 02:21 7,1 C 93 % 1005,1 hPa 0,0 mm 1,3 km/h NO 323 0 min 0 min 0,000 mm 0,0 UV-I 0 W/m 6,0 C 7,1 C 3,5 km/h 95,65 %
08/12/2021 02:20 7,1 C 93 % 1005,1 hPa 0,0 mm 0,5 km/h NO 323 0 min 0 min 0,000 mm 0,0 UV-I 0 W/m 6,0 C 7,1 C 1,8 km/h 100,00 %
08/12/2021 02:19 7,1 C 93 % 1005,1 hPa 0,0 mm 1,3 km/h NO 323 0 min 0 min 0,000 mm 0,0 UV-I 0 W/m 6,0 C 7,1 C 3,5 km/h 95,83 %
08/12/2021 02:18 7,1 C 93 % 1005,2 hPa 0,0 mm 1,1 km/h NO 323 0 min 0 min 0,000 mm 0,0 UV-I 0 W/m 6,0 C 7,1 C 3,5 km/h 88,89 %
08/12/2021 02:17 7,1 C 93 % 1005,1 hPa 0,0 mm 1,4 km/h NO 321 0 min 0 min 0,000 mm 0,0 UV-I 0 W/m 6,0 C 7,1 C 3,5 km/h 96,43 %
08/12/2021 02:16 7,1 C 93 % 1005,1 hPa 0,0 mm 3,0 km/h NO 321 0 min 0 min 0,000 mm 0,0 UV-I 0 W/m 6,0 C 7,1 C 5,3 km/h 95,83 %
08/12/2021 02:15 7,1 C 93 % 1005,2 hPa 0,0 mm 1,3 km/h NO 321 0 min 0 min 0,000 mm 0,0 UV-I 0 W/m 6,0 C 7,1 C 1,8 km/h 91,67 %
08/12/2021 02:14 7,1 C 93 % 1005,1 hPa 0,0 mm 0,5 km/h NO 321 0 min 0 min 0,000 mm 0,0 UV-I 0 W/m 6,0 C 7,1 C 3,5 km/h 96,00 %
08/12/2021 02:13 7,1 C 93 % 1005,0 hPa 0,0 mm 2,3 km/h NO 320 0 min 0 min 0,000 mm 0,0 UV-I 0 W/m 6,0 C 7,1 C 5,3 km/h 95,65 %
08/12/2021 02:12 7,2 C 93 % 1005,0 hPa 0,0 mm 4,1 km/h NO 321 0 min 0 min 0,000 mm 0,0 UV-I 0 W/m 6,1 C 7,2 C 7,1 km/h 92,59 %
08/12/2021 02:11 7,2 C 93 % 1004,9 hPa 0,0 mm 1,6 km/h NO 312 0 min 0 min 0,000 mm 0,0 UV-I 0 W/m 6,1 C 7,2 C 3,5 km/h 88,00 %
08/12/2021 02:10 7,2 C 93 % 1004,9 hPa 0,0 mm 2,5 km/h NO 312 0 min 0 min 0,000 mm 0,0 UV-I 0 W/m 6,1 C 7,2 C 5,3 km/h 100,00 %
08/12/2021 02:09 7,2 C 93 % 1005,0 hPa 0,0 mm 2,2 km/h NO 308 0 min 0 min 0,000 mm 0,0 UV-I 0 W/m 6,1 C 7,2 C 7,1 km/h 95,65 %
08/12/2021 02:08 7,2 C 93 % 1005,0 hPa 0,0 mm 0,4 km/h N 355 0 min 0 min 0,000 mm 0,0 UV-I 0 W/m 6,1 C 7,2 C 1,8 km/h 100,00 %
08/12/2021 02:07 7,2 C 93 % 1005,0 hPa 0,0 mm 0,8 km/h N 355 0 min 0 min 0,000 mm 0,0 UV-I 0 W/m 6,1 C 7,2 C 3,5 km/h 92,86 %
08/12/2021 02:06 7,2 C 93 % 1005,0 hPa 0,0 mm 1,7 km/h N 355 0 min 0 min 0,000 mm 0,0 UV-I 0 W/m 6,1 C 7,2 C 3,5 km/h 100,00 %
08/12/2021 02:05 7,2 C 93 % 1005,0 hPa 0,0 mm 1,6 km/h N 355 0 min 0 min 0,000 mm 0,0 UV-I 0 W/m 6,1 C 7,2 C 5,3 km/h 92,50 %
08/12/2021 02:03 7,2 C 93 % 1005,1 hPa 0,0 mm 2,4 km/h O-NO 302 0 min 0 min 0,000 mm 0,0 UV-I 0 W/m 6,1 C 7,2 C 3,5 km/h 96,30 %
08/12/2021 02:02 7,2 C 93 % 1005,2 hPa 0,0 mm 3,0 km/h O-NO 298 0 min 0 min 0,000 mm 0,0 UV-I 0 W/m 6,1 C 7,2 C 5,3 km/h 100,00 %
08/12/2021 02:01 7,2 C 93 % 1005,2 hPa 0,0 mm 0,1 km/h O-NO 293 0 min 0 min 0,000 mm 0,0 UV-I 0 W/m 6,1 C 7,2 C 1,8 km/h 100,00 %
08/12/2021 02:00 7,2 C 93 % 1005,2 hPa 0,2 mm 0,0 km/h O-NO 292 0 min 0 min 0,000 mm 0,0 UV-I 0 W/m 6,1 C 7,2 C 0,0 km/h 100,00 %
08/12/2021 01:59 7,2 C 93 % 1005,2 hPa 0,0 mm 0,0 km/h O-NO 292 0 min 0 min 0,000 mm 0,0 UV-I 0 W/m 6,1 C 7,2 C 0,0 km/h 100,00 %
08/12/2021 01:58 7,2 C 93 % 1005,3 hPa 0,0 mm 0,8 km/h O-NO 292 0 min 0 min 0,000 mm 0,0 UV-I 0 W/m 6,1 C 7,2 C 1,8 km/h 100,00 %
08/12/2021 01:57 7,2 C 93 % 1005,3 hPa 0,0 mm 1,8 km/h O-NO 292 0 min 0 min 0,000 mm 0,0 UV-I 0 W/m 6,1 C 7,2 C 3,5 km/h 100,00 %
08/12/2021 01:56 7,2 C 93 % 1005,3 hPa 0,0 mm 1,6 km/h O-NO 292 0 min 0 min 0,000 mm 0,0 UV-I 0 W/m 6,1 C 7,2 C 3,5 km/h 97,14 %
08/12/2021 01:55 7,2 C 93 % 1005,2 hPa 0,0 mm 2,0 km/h O-NO 292 0 min 0 min 0,000 mm 0,0 UV-I 0 W/m 6,1 C 7,2 C 3,5 km/h 100,00 %
08/12/2021 01:54 7,2 C 93 % 1005,2 hPa 0,0 mm 3,7 km/h O-NO 292 0 min 0 min 0,000 mm 0,0 UV-I 0 W/m 6,1 C 7,2 C 5,3 km/h 100,00 %
08/12/2021 01:53 7,2 C 93 % 1005,2 hPa 0,0 mm 2,4 km/h O-NO 292 0 min 0 min 0,000 mm 0,0 UV-I 0 W/m 6,1 C 7,2 C 3,5 km/h 100,00 %
08/12/2021 01:52 7,2 C 93 % 1005,2 hPa 0,0 mm 4,3 km/h O-NO 292 0 min 0 min 0,000 mm 0,0 UV-I 0 W/m 6,1 C 7,2 C 7,1 km/h 100,00 %
08/12/2021 01:51 7,2 C 93 % 1005,2 hPa 0,0 mm 3,8 km/h O-NO 292 0 min 0 min 0,000 mm 0,0 UV-I 0 W/m 6,1 C 7,2 C 7,1 km/h 100,00 %
08/12/2021 01:50 7,2 C 93 % 1005,2 hPa 0,0 mm 3,5 km/h O-NO 298 0 min 0 min 0,000 mm 0,0 UV-I 0 W/m 6,1 C 7,2 C 5,3 km/h 100,00 %
08/12/2021 01:49 7,2 C 93 % 1005,1 hPa 0,0 mm 3,5 km/h NO 316 0 min 0 min 0,000 mm 0,0 UV-I 0 W/m 6,1 C 7,2 C 5,3 km/h 100,00 %
08/12/2021 01:48 7,2 C 93 % 1005,1 hPa 0,0 mm 2,3 km/h N-NO 340 0 min 0 min 0,000 mm 0,0 UV-I 0 W/m 6,1 C 7,2 C 3,5 km/h 100,00 %
08/12/2021 01:47 7,2 C 93 % 1005,1 hPa 0,0 mm 3,2 km/h N-NO 340 0 min 0 min 0,000 mm 0,0 UV-I 0 W/m 6,1 C 7,2 C 7,1 km/h 91,67 %
08/12/2021 01:46 7,2 C 93 % 1005,0 hPa 0,0 mm 3,9 km/h N-NO 336 0 min 0 min 0,000 mm 0,0 UV-I 0 W/m 6,1 C 7,2 C 7,1 km/h 100,00 %
08/12/2021 01:45 7,2 C 93 % 1005,0 hPa 0,0 mm 2,7 km/h N 360 0 min 0 min 0,000 mm 0,0 UV-I 0 W/m 6,1 C 7,2 C 7,1 km/h 100,00 %
08/12/2021 01:44 7,2 C 93 % 1005,0 hPa 0,0 mm 4,1 km/h N 355 0 min 0 min 0,000 mm 0,0 UV-I 0 W/m 6,1 C 7,2 C 5,3 km/h 96,55 %
08/12/2021 01:43 7,2 C 93 % 1005,0 hPa 0,0 mm 4,7 km/h N 360 0 min 0 min 0,000 mm 0,0 UV-I 0 W/m 6,1 C 7,2 C 8,9 km/h 96,67 %
08/12/2021 01:42 7,2 C 93 % 1005,0 hPa 0,0 mm 6,5 km/h NE 45 0 min 0 min 0,000 mm 0,0 UV-I 0 W/m 6,1 C 7,1 C 10,6 km/h 100,00 %
08/12/2021 01:41 7,2 C 93 % 1005,0 hPa 0,0 mm 4,2 km/h NE 55 0 min 0 min 0,000 mm 0,0 UV-I 0 W/m 6,1 C 7,2 C 8,9 km/h 96,67 %
08/12/2021 01:40 7,2 C 93 % 1005,0 hPa 0,0 mm 2,6 km/h N 350 0 min 0 min 0,000 mm 0,0 UV-I 0 W/m 6,1 C 7,2 C 3,5 km/h 96,43 %
08/12/2021 01:39 7,2 C 93 % 1005,0 hPa 0,0 mm 1,2 km/h N 350 0 min 0 min 0,000 mm 0,0 UV-I 0 W/m 6,1 C 7,2 C 3,5 km/h 78,57 %
08/12/2021 01:38 7,2 C 93 % 1005,1 hPa 0,0 mm 2,2 km/h N 350 0 min 0 min 0,000 mm 0,0 UV-I 0 W/m 6,1 C 7,2 C 5,3 km/h 100,00 %
08/12/2021 01:37 7,2 C 93 % 1005,2 hPa 0,0 mm 0,0 km/h N 350 0 min 0 min 0,000 mm 0,0 UV-I 0 W/m 6,1 C 7,2 C 0,0 km/h 100,00 %
08/12/2021 01:36 7,2 C 93 % 1005,2 hPa 0,0 mm 0,0 km/h N 350 0 min 0 min 0,000 mm 0,0 UV-I 0 W/m 6,1 C 7,2 C 0,0 km/h 100,00 %
08/12/2021 01:35 7,2 C 93 % 1005,3 hPa 0,0 mm 0,0 km/h N 350 0 min 0 min 0,000 mm 0,0 UV-I 0 W/m 6,1 C 7,2 C 0,0 km/h 100,00 %
08/12/2021 01:34 7,2 C 93 % 1005,3 hPa 0,0 mm 0,0 km/h N 350 0 min 0 min 0,000 mm 0,0 UV-I 0 W/m 6,1 C 7,2 C 0,0 km/h 95,65 %
08/12/2021 01:33 7,2 C 93 % 1005,3 hPa 0,0 mm 0,0 km/h N 350 0 min 0 min 0,000 mm 0,0 UV-I 0 W/m 6,1 C 7,2 C 0,0 km/h 100,00 %
08/12/2021 01:32 7,2 C 93 % 1005,2 hPa 0,0 mm 0,1 km/h N 350 0 min 0 min 0,000 mm 0,0 UV-I 0 W/m 6,1 C 7,2 C 1,8 km/h 100,00 %
08/12/2021 01:31 7,2 C 93 % 1005,1 hPa 0,0 mm 0,8 km/h N 350 0 min 0 min 0,000 mm 0,0 UV-I 0 W/m 6,1 C 7,2 C 3,5 km/h 95,65 %
08/12/2021 01:30 7,2 C 93 % 1005,1 hPa 0,0 mm 1,6 km/h N 350 0 min 0 min 0,000 mm 0,0 UV-I 0 W/m 6,1 C 7,2 C 3,5 km/h 100,00 %
08/12/2021 01:29 7,2 C 93 % 1005,2 hPa 0,2 mm 3,0 km/h N 350 0 min 0 min 0,000 mm 0,0 UV-I 0 W/m 6,1 C 7,2 C 5,3 km/h 100,00 %
08/12/2021 01:28 7,2 C 93 % 1005,2 hPa 0,0 mm 4,0 km/h N 350 0 min 0 min 0,000 mm 0,0 UV-I 0 W/m 6,1 C 7,2 C 14,2 km/h 100,00 %
08/12/2021 01:27 7,1 C 93 % 1005,2 hPa 0,0 mm 3,8 km/h NE 54 0 min 0 min 0,000 mm 0,0 UV-I 0 W/m 6,0 C 7,1 C 7,1 km/h 100,00 %
08/12/2021 01:26 7,1 C 93 % 1005,3 hPa 0,2 mm 4,0 km/h N-NO 342 0 min 0 min 0,000 mm 0,0 UV-I 0 W/m 6,0 C 7,1 C 8,9 km/h 100,00 %
08/12/2021 01:25 7,1 C 93 % 1005,3 hPa 0,2 mm 5,1 km/h N 5 0 min 0 min 0,000 mm 0,0 UV-I 0 W/m 6,0 C 7,1 C 8,9 km/h 96,15 %
08/12/2021 01:24 7,1 C 93 % 1005,3 hPa 0,2 mm 5,5 km/h N-NE 26 0 min 0 min 0,000 mm 0,0 UV-I 0 W/m 6,0 C 7,1 C 12,4 km/h 96,15 %
08/12/2021 01:23 7,1 C 93 % 1005,4 hPa 0,2 mm 7,1 km/h N-NE 31 0 min 0 min 0,000 mm 0,0 UV-I 0 W/m 6,0 C 6,5 C 8,9 km/h 100,00 %
08/12/2021 01:22 7,0 C 93 % 1005,4 hPa 0,2 mm 8,3 km/h N 10 0 min 0 min 0,000 mm 0,0 UV-I 0 W/m 5,9 C 5,5 C 12,4 km/h 100,00 %
08/12/2021 01:21 7,1 C 92 % 1005,5 hPa 0,2 mm 8,1 km/h N 5 0 min 0 min 0,000 mm 0,0 UV-I 0 W/m 5,9 C 5,7 C 12,4 km/h 96,77 %
08/12/2021 01:20 7,0 C 92 % 1005,6 hPa 0,0 mm 2,1 km/h N 349 0 min 0 min 0,000 mm 0,0 UV-I 0 W/m 5,8 C 7,0 C 5,3 km/h 100,00 %
08/12/2021 01:19 7,0 C 93 % 1005,6 hPa 0,0 mm 4,3 km/h N-NO 348 0 min 0 min 0,000 mm 0,0 UV-I 0 W/m 5,9 C 7,0 C 8,9 km/h 100,00 %
08/12/2021 01:18 7,0 C 92 % 1005,6 hPa 0,0 mm 4,6 km/h N-NO 338 0 min 0 min 0,000 mm 0,0 UV-I 0 W/m 5,8 C 7,0 C 10,6 km/h 100,00 %
08/12/2021 01:17 7,0 C 92 % 1005,6 hPa 0,0 mm 2,1 km/h NO 317 0 min 0 min 0,000 mm 0,0 UV-I 0 W/m 5,8 C 7,0 C 3,5 km/h 97,22 %
08/12/2021 01:16 7,0 C 92 % 1005,7 hPa 0,0 mm 3,3 km/h NO 317 0 min 0 min 0,000 mm 0,0 UV-I 0 W/m 5,8 C 7,0 C 5,3 km/h 83,33 %
08/12/2021 01:15 6,9 C 92 % 1005,6 hPa 0,2 mm 2,0 km/h N-NO 328 0 min 0 min 0,000 mm 0,0 UV-I 0 W/m 5,7 C 6,9 C 3,5 km/h 95,65 %
08/12/2021 01:14 6,9 C 92 % 1005,6 hPa 0,0 mm 3,2 km/h NO 323 0 min 0 min 0,000 mm 0,0 UV-I 0 W/m 5,7 C 6,9 C 7,1 km/h 96,00 %
08/12/2021 01:13 6,9 C 92 % 1005,6 hPa 0,0 mm 4,0 km/h NO 321 0 min 0 min 0,000 mm 0,0 UV-I 0 W/m 5,7 C 6,9 C 8,9 km/h 100,00 %
08/12/2021 01:12 6,9 C 92 % 1005,6 hPa 0,2 mm 4,2 km/h NO 323 0 min 0 min 0,000 mm 0,0 UV-I 0 W/m 5,7 C 6,9 C 8,9 km/h 92,31 %
08/12/2021 01:11 6,9 C 92 % 1005,6 hPa 0,0 mm 3,5 km/h N 360 0 min 0 min 0,000 mm 0,0 UV-I 0 W/m 5,7 C 6,9 C 8,9 km/h 96,55 %
08/12/2021 01:10 6,9 C 92 % 1005,6 hPa 0,0 mm 5,5 km/h NO 313 0 min 0 min 0,000 mm 0,0 UV-I 0 W/m 5,7 C 6,9 C 12,4 km/h 100,00 %
08/12/2021 01:09 6,9 C 92 % 1005,7 hPa 0,0 mm 5,2 km/h NO 311 0 min 0 min 0,000 mm 0,0 UV-I 0 W/m 5,7 C 6,9 C 7,1 km/h 96,00 %
08/12/2021 01:08 6,9 C 92 % 1005,7 hPa 0,0 mm 3,2 km/h NO 313 0 min 0 min 0,000 mm 0,0 UV-I 0 W/m 5,7 C 6,9 C 5,3 km/h 100,00 %
08/12/2021 01:07 6,9 C 92 % 1005,8 hPa 0,0 mm 3,0 km/h NO 314 0 min 0 min 0,000 mm 0,0 UV-I 0 W/m 5,7 C 6,9 C 5,3 km/h 95,83 %
08/12/2021 01:06 6,9 C 92 % 1005,8 hPa 0,0 mm 1,6 km/h N-NO 332 0 min 0 min 0,000 mm 0,0 UV-I 0 W/m 5,7 C 6,9 C 3,5 km/h 100,00 %
08/12/2021 01:05 6,9 C 92 % 1005,8 hPa 0,2 mm 3,0 km/h N-NO 332 0 min 0 min 0,000 mm 0,0 UV-I 0 W/m 5,7 C 6,9 C 7,1 km/h 98,04 %
08/12/2021 01:03 6,8 C 92 % 1005,9 hPa 0,0 mm 2,7 km/h O-NO 297 0 min 0 min 0,000 mm 0,0 UV-I 0 W/m 5,6 C 6,8 C 5,3 km/h 88,89 %
08/12/2021 01:02 6,8 C 92 % 1006,0 hPa 0,0 mm 1,9 km/h O-NO 300 0 min 0 min 0,000 mm 0,0 UV-I 0 W/m 5,6 C 6,8 C 5,3 km/h 100,00 %
08/12/2021 01:01 6,8 C 92 % 1006,0 hPa 0,0 mm 1,9 km/h O-NO 300 0 min 0 min 0,000 mm 0,0 UV-I 0 W/m 5,6 C 6,8 C 3,5 km/h 96,15 %
08/12/2021 01:00 6,8 C 92 % 1006,1 hPa 0,0 mm 2,6 km/h O-NO 300 0 min 0 min 0,000 mm 0,0 UV-I 0 W/m 5,6 C 6,8 C 5,3 km/h 100,00 %
08/12/2021 00:59 6,8 C 92 % 1006,2 hPa 0,0 mm 4,9 km/h N 355 0 min 0 min 0,000 mm 0,0 UV-I 0 W/m 5,6 C 6,8 C 8,9 km/h 100,00 %
08/12/2021 00:58 6,8 C 92 % 1006,2 hPa 0,0 mm 5,2 km/h N-NO 332 0 min 0 min 0,000 mm 0,0 UV-I 0 W/m 5,6 C 6,8 C 10,6 km/h 100,00 %
08/12/2021 00:57 6,8 C 92 % 1006,2 hPa 0,0 mm 4,2 km/h NE 38 0 min 0 min 0,000 mm 0,0 UV-I 0 W/m 5,6 C 6,8 C 7,1 km/h 100,00 %
08/12/2021 00:56 6,8 C 92 % 1006,3 hPa 0,0 mm 2,7 km/h NO 313 0 min 0 min 0,000 mm 0,0 UV-I 0 W/m 5,6 C 6,8 C 5,3 km/h 100,00 %
08/12/2021 00:55 6,8 C 92 % 1006,3 hPa 0,0 mm 2,7 km/h N-NO 337 0 min 0 min 0,000 mm 0,0 UV-I 0 W/m 5,6 C 6,8 C 3,5 km/h 100,00 %
08/12/2021 00:54 6,8 C 92 % 1006,3 hPa 0,0 mm 2,8 km/h O-NO 284 0 min 0 min 0,000 mm 0,0 UV-I 0 W/m 5,6 C 6,8 C 5,3 km/h 100,00 %
08/12/2021 00:53 6,8 C 91 % 1006,4 hPa 0,0 mm 4,0 km/h N-NO 335 0 min 0 min 0,000 mm 0,0 UV-I 0 W/m 5,4 C 6,8 C 7,1 km/h 100,00 %
08/12/2021 00:52 6,8 C 91 % 1006,5 hPa 0,0 mm 4,6 km/h NO 308 0 min 0 min 0,000 mm 0,0 UV-I 0 W/m 5,4 C 6,8 C 7,1 km/h 100,00 %
08/12/2021 00:51 6,8 C 91 % 1006,5 hPa 0,2 mm 5,7 km/h N-NO 341 0 min 0 min 0,000 mm 0,0 UV-I 0 W/m 5,4 C 6,8 C 10,6 km/h 97,76 %
08/12/2021 00:50 6,8 C 91 % 1006,6 hPa 0,0 mm 4,5 km/h N 5 0 min 0 min 0,000 mm 0,0 UV-I 0 W/m 5,4 C 6,8 C 7,1 km/h 100,00 %
08/12/2021 00:49 6,8 C 91 % 1006,5 hPa 0,0 mm 5,2 km/h O-NO 289 0 min 0 min 0,000 mm 0,0 UV-I 0 W/m 5,4 C 6,8 C 10,6 km/h 100,00 %
08/12/2021 00:48 6,8 C 91 % 1006,6 hPa 0,0 mm 4,7 km/h N-NO 330 0 min 0 min 0,000 mm 0,0 UV-I 0 W/m 5,4 C 6,8 C 12,4 km/h 100,00 %
08/12/2021 00:47 6,8 C 91 % 1006,6 hPa 0,0 mm 4,4 km/h N-NO 331 0 min 0 min 0,000 mm 0,0 UV-I 0 W/m 5,4 C 6,8 C 8,9 km/h 100,00 %
08/12/2021 00:46 6,8 C 91 % 1006,6 hPa 0,0 mm 4,9 km/h O-NO 303 0 min 0 min 0,000 mm 0,0 UV-I 0 W/m 5,4 C 6,8 C 10,6 km/h 100,00 %
08/12/2021 00:45 6,8 C 91 % 1006,7 hPa 0,0 mm 3,8 km/h O-NO 298 0 min 0 min 0,000 mm 0,0 UV-I 0 W/m 5,4 C 6,8 C 10,6 km/h 100,00 %
08/12/2021 00:44 6,8 C 91 % 1006,7 hPa 0,0 mm 4,3 km/h N 11 0 min 0 min 0,000 mm 0,0 UV-I 0 W/m 5,4 C 6,8 C 8,9 km/h 100,00 %
08/12/2021 00:43 6,8 C 91 % 1006,8 hPa 0,0 mm 3,4 km/h N-NO 343 0 min 0 min 0,000 mm 0,0 UV-I 0 W/m 5,4 C 6,8 C 7,1 km/h 100,00 %
08/12/2021 00:42 6,8 C 91 % 1006,7 hPa 0,0 mm 4,1 km/h O-NO 298 0 min 0 min 0,000 mm 0,0 UV-I 0 W/m 5,4 C 6,8 C 8,9 km/h 100,00 %
08/12/2021 00:41 6,8 C 91 % 1006,8 hPa 0,0 mm 5,7 km/h NO 313 0 min 0 min 0,000 mm 0,0 UV-I 0 W/m 5,4 C 6,8 C 10,6 km/h 100,00 %
08/12/2021 00:40 6,9 C 91 % 1006,9 hPa 0,0 mm 3,5 km/h O 277 0 min 0 min 0,000 mm 0,0 UV-I 0 W/m 5,5 C 6,9 C 10,6 km/h 96,15 %
08/12/2021 00:39 6,9 C 91 % 1006,9 hPa 0,0 mm 3,3 km/h O-NO 298 0 min 0 min 0,000 mm 0,0 UV-I 0 W/m 5,5 C 6,9 C 7,1 km/h 100,00 %
08/12/2021 00:38 6,9 C 91 % 1007,0 hPa 0,0 mm 5,1 km/h NO 316 0 min 0 min 0,000 mm 0,0 UV-I 0 W/m 5,5 C 6,9 C 8,9 km/h 100,00 %
08/12/2021 00:37 6,9 C 91 % 1007,0 hPa 0,0 mm 2,5 km/h NO 314 0 min 0 min 0,000 mm 0,0 UV-I 0 W/m 5,5 C 6,9 C 5,3 km/h 100,00 %
08/12/2021 00:36 6,9 C 91 % 1007,0 hPa 0,0 mm 3,0 km/h O-NO 302 0 min 0 min 0,000 mm 0,0 UV-I 0 W/m 5,5 C 6,9 C 5,3 km/h 100,00 %
08/12/2021 00:35 6,9 C 90 % 1007,0 hPa 0,0 mm 4,4 km/h N-NO 344 0 min 0 min 0,000 mm 0,0 UV-I 0 W/m 5,4 C 6,9 C 8,9 km/h 98,15 %
08/12/2021 00:33 6,9 C 90 % 1007,0 hPa 0,0 mm 3,9 km/h N-NO 347 0 min 0 min 0,000 mm 0,0 UV-I 0 W/m 5,4 C 6,9 C 8,9 km/h 96,00 %
08/12/2021 00:32 6,9 C 90 % 1007,1 hPa 0,0 mm 3,9 km/h O-NO 292 0 min 0 min 0,000 mm 0,0 UV-I 0 W/m 5,4 C 6,9 C 8,9 km/h 100,00 %
08/12/2021 00:31 6,9 C 90 % 1007,1 hPa 0,2 mm 4,3 km/h O-NO 288 0 min 0 min 0,000 mm 0,0 UV-I 0 W/m 5,4 C 6,9 C 5,3 km/h 93,33 %
08/12/2021 00:30 7,0 C 90 % 1007,1 hPa 0,0 mm 4,4 km/h NO 324 0 min 0 min 0,000 mm 0,0 UV-I 0 W/m 5,5 C 7,0 C 8,9 km/h 100,00 %
08/12/2021 00:29 7,0 C 90 % 1007,2 hPa 0,0 mm 5,4 km/h N-NO 347 0 min 0 min 0,000 mm 0,0 UV-I 0 W/m 5,5 C 7,0 C 10,6 km/h 95,83 %
08/12/2021 00:28 7,1 C 90 % 1007,2 hPa 0,0 mm 5,5 km/h O-NO 299 0 min 0 min 0,000 mm 0,0 UV-I 0 W/m 5,6 C 7,1 C 8,9 km/h 100,00 %
08/12/2021 00:27 7,1 C 90 % 1007,2 hPa 0,0 mm 3,6 km/h NO 325 0 min 0 min 0,000 mm 0,0 UV-I 0 W/m 5,6 C 7,1 C 5,3 km/h 91,67 %
08/12/2021 00:26 7,1 C 90 % 1007,2 hPa 0,0 mm 3,3 km/h NO 311 0 min 0 min 0,000 mm 0,0 UV-I 0 W/m 5,6 C 7,1 C 5,3 km/h 100,00 %
08/12/2021 00:25 7,1 C 90 % 1007,2 hPa 0,0 mm 3,6 km/h N-NO 328 0 min 0 min 0,000 mm 0,0 UV-I 0 W/m 5,6 C 7,1 C 5,3 km/h 91,67 %
08/12/2021 00:24 7,1 C 90 % 1007,2 hPa 0,0 mm 3,3 km/h NO 317 0 min 0 min 0,000 mm 0,0 UV-I 0 W/m 5,6 C 7,1 C 5,3 km/h 100,00 %
08/12/2021 00:23 7,1 C 90 % 1007,2 hPa 0,0 mm 3,5 km/h NO 320 0 min 0 min 0,000 mm 0,0 UV-I 0 W/m 5,6 C 7,1 C 7,1 km/h 100,00 %
08/12/2021 00:22 7,1 C 90 % 1007,2 hPa 0,0 mm 3,7 km/h N-NO 333 0 min 0 min 0,000 mm 0,0 UV-I 0 W/m 5,6 C 7,1 C 5,3 km/h 100,00 %
08/12/2021 00:21 7,2 C 90 % 1007,2 hPa 0,2 mm 5,1 km/h N-NO 340 0 min 0 min 0,000 mm 0,0 UV-I 0 W/m 5,7 C 7,2 C 12,4 km/h 93,10 %
08/12/2021 00:20 7,2 C 89 % 1007,3 hPa 0,0 mm 4,8 km/h N-NO 332 0 min 0 min 0,000 mm 0,0 UV-I 0 W/m 5,5 C 7,2 C 7,1 km/h 96,30 %
08/12/2021 00:19 7,2 C 90 % 1007,2 hPa 0,0 mm 5,0 km/h N-NO 344 0 min 0 min 0,000 mm 0,0 UV-I 0 W/m 5,7 C 7,2 C 8,9 km/h 100,00 %
08/12/2021 00:18 7,2 C 89 % 1007,3 hPa 0,0 mm 3,1 km/h O-NO 292 0 min 0 min 0,000 mm 0,0 UV-I 0 W/m 5,5 C 7,2 C 5,3 km/h 92,86 %
08/12/2021 00:17 7,3 C 89 % 1007,3 hPa 0,0 mm 5,3 km/h NO 306 0 min 0 min 0,000 mm 0,0 UV-I 0 W/m 5,6 C 7,3 C 7,1 km/h 100,00 %
08/12/2021 00:16 7,3 C 89 % 1007,3 hPa 0,0 mm 6,9 km/h N-NO 330 0 min 0 min 0,000 mm 0,0 UV-I 0 W/m 5,6 C 6,9 C 14,2 km/h 96,15 %
08/12/2021 00:15 7,3 C 89 % 1007,3 hPa 0,0 mm 7,4 km/h N-NO 343 0 min 0 min 0,000 mm 0,0 UV-I 0 W/m 5,6 C 6,5 C 12,4 km/h 97,22 %
08/12/2021 00:14 7,3 C 89 % 1007,3 hPa 0,2 mm 6,4 km/h NO 319 0 min 0 min 0,000 mm 0,0 UV-I 0 W/m 5,6 C 7,3 C 10,6 km/h 100,00 %
08/12/2021 00:13 7,4 C 89 % 1007,3 hPa 0,0 mm 6,3 km/h O-NO 295 0 min 0 min 0,000 mm 0,0 UV-I 0 W/m 5,7 C 7,4 C 10,6 km/h 100,00 %
08/12/2021 00:12 7,4 C 89 % 1007,3 hPa 0,0 mm 3,0 km/h N-NO 333 0 min 0 min 0,000 mm 0,0 UV-I 0 W/m 5,7 C 7,4 C 5,3 km/h 95,83 %
08/12/2021 00:11 7,4 C 89 % 1007,4 hPa 0,0 mm 3,1 km/h NO 324 0 min 0 min 0,000 mm 0,0 UV-I 0 W/m 5,7 C 7,4 C 7,1 km/h 100,00 %
08/12/2021 00:10 7,5 C 89 % 1007,4 hPa 0,0 mm 2,8 km/h NO 306 0 min 0 min 0,000 mm 0,0 UV-I 0 W/m 5,8 C 7,5 C 5,3 km/h 96,00 %
08/12/2021 00:09 7,5 C 89 % 1007,4 hPa 0,0 mm 4,0 km/h NO 306 0 min 0 min 0,000 mm 0,0 UV-I 0 W/m 5,8 C 7,5 C 7,1 km/h 95,65 %
08/12/2021 00:08 7,5 C 89 % 1007,4 hPa 0,0 mm 3,3 km/h O-NO 296 0 min 0 min 0,000 mm 0,0 UV-I 0 W/m 5,8 C 7,5 C 7,1 km/h 95,83 %
08/12/2021 00:07 7,6 C 89 % 1007,4 hPa 0,0 mm 3,0 km/h N-NO 337 0 min 0 min 0,000 mm 0,0 UV-I 0 W/m 5,9 C 7,6 C 7,1 km/h 96,00 %
08/12/2021 00:06 7,6 C 88 % 1007,4 hPa 0,0 mm 3,5 km/h NO 321 0 min 0 min 0,000 mm 0,0 UV-I 0 W/m 5,7 C 7,6 C 5,3 km/h 95,83 %
08/12/2021 00:05 7,6 C 88 % 1007,4 hPa 0,2 mm 3,4 km/h NO 321 0 min 0 min 0,000 mm 0,0 UV-I 0 W/m 5,7 C 7,6 C 7,1 km/h 95,92 %
08/12/2021 00:03 7,6 C 88 % 1007,4 hPa 0,0 mm 1,9 km/h N-NO 346 0 min 0 min 0,000 mm 0,0 UV-I 0 W/m 5,7 C 7,6 C 3,5 km/h 95,65 %
08/12/2021 00:02 7,6 C 88 % 1007,3 hPa 0,0 mm 1,5 km/h N-NO 348 0 min 0 min 0,000 mm 0,0 UV-I 0 W/m 5,7 C 7,6 C 3,5 km/h 96,00 %
08/12/2021 00:01 7,6 C 88 % 1007,3 hPa 0,0 mm 4,9 km/h N-NO 348 0 min 0 min 0,000 mm 0,0 UV-I 0 W/m 5,7 C 7,6 C 7,1 km/h 100,00 %
08/12/2021 00:00 7,6 C 88 % 1007,3 hPa 0,0 mm 3,7 km/h N 360 0 min 0 min 0,000 mm 0,0 UV-I 0 W/m 5,7 C 7,6 C 7,1 km/h 96,55 %
_ Min-Heure 08:28 00:00 05:20 - 01:33 - - - - - - - 00:31 01:22 01:33 01:39
Minimum _ 6,2 C 88 % 1002,6 hPa - 0,0 km/h - - - - - - - 5,4 C 5,5 C 0,0 km/h 78,57 %
_ Max-Heure 00:00 09:35 00:03 00:05 01:22 - - 00:00 00:00 10:01 00:00 10:50 10:30 00:00 00:16 00:01
Maximum _ 7,6 C 96 % 1007,4 hPa 0,2 mm 8,3 km/h
N
- - 0 min 0 min 0,025 mm 0,0 UV-I 123 W/m 6,4 C 7,6 C 14,2 km/h
O
100,00 %
Moyenne _ 6,7 C 94 % 1004,3 hPa #9,0 mm 1,4 km/h O - #0 min. #0 min. #0,025 mm 0,0 UV-I 49 W/m 5,8 C 6,7 C 2,8 km/h 97,74 %
AUBAIS - Gard